Missouri River (Missouri), Boonville (06909000)

StateMissouriLatestUnknown (126000 cfs)
RiverMissouri RiverRatingObservedEstimated
Updated2021-04-10 22:30 (24 minutes ago)Flood - The river is flooding. Obstacles can be treacherous or deadly. The river should be avoided at this stage for casual trips and definitely for the inexperienced. Trips should be attempted only with protective gear and equipment.Flood(none)(none)
Discharge126000 cfs (median: 62000 cfs)High - The river is high and potentially dangerous, especially for the young and / or inexperienced. Normal stream obstacles are sometimes difficult to navigate. Extended distances can be attempted, but canoe travel may not be advisable.High(none)(none)
Height16.76 feetGood - Conditions are ideal for a canoe or kayak. Boats typically will drag on fewer than one-quarter of riffles, if at all, and portages are unnecessary or rare. Normal float lengths can be attempted without a problem.Good(none)(none)
TrendRising (rising over 24 hours)Low - River is low but can still be floated. Some riffles are okay but most come with significant dragging and might need a portage. Float lengths should be reduced to accommodate low flow, dragging, and portages.Low(none)(none)
USGSExternal icon USGS Site (External icon Google Maps)Poor - River is too low to float comfortably. Most or all riffles will drag or must be portaged and some obstacles (such as slick shelf rock) cause undue problems. Avoid the river at this stage for casual paddling trips.Poor(none)(none)

Trending Data

Plot Image

Trips for Missouri River (Missouri), Boonville (06909000)

DateStartEndDistanceConditionDischargeHeightFishingDetails

A total of 0 rows are displayed.

Condition Descriptions

Fishing Conditions

Fish Species

Notes

Classic Trip List

The classic River Trips application is still available for use. It is updated with the new system using a data retrofit. It is no longer maintained. The original River Trips application is no longer updated (as of 1 Dec 2016) but can be checked for errors or for the condition of the data before it was converted to the new system.

Gauge Data Table

ObservationHeightDischargeMaximum
Discharge
Minimum
Discharge
Mean
Discharge
P05P10P20P25P50
(Median)
P75P80P90P95
2021-04-10 22:30 16.76 126000 241000 (1983) 34900 (2003) 83600 38100 40100 44700 47100 62000 103000 126000 160000 192000
2021-04-10 21:30 16.49 123000 241000 (1983) 34900 (2003) 83600 38100 40100 44700 47100 62000 103000 126000 160000 192000
2021-04-10 20:30 16.14 119000 241000 (1983) 34900 (2003) 83600 38100 40100 44700 47100 62000 103000 126000 160000 192000
2021-04-10 19:30 15.90 117000 241000 (1983) 34900 (2003) 83600 38100 40100 44700 47100 62000 103000 126000 160000 192000
2021-04-10 18:30 15.57 113000 241000 (1983) 34900 (2003) 83600 38100 40100 44700 47100 62000 103000 126000 160000 192000
2021-04-10 17:30 15.24 110000 241000 (1983) 34900 (2003) 83600 38100 40100 44700 47100 62000 103000 126000 160000 192000
2021-04-10 16:30 14.91 107000 241000 (1983) 34900 (2003) 83600 38100 40100 44700 47100 62000 103000 126000 160000 192000
2021-04-10 15:30 14.68 104000 241000 (1983) 34900 (2003) 83600 38100 40100 44700 47100 62000 103000 126000 160000 192000
2021-04-10 14:30 14.46 102000 241000 (1983) 34900 (2003) 83600 38100 40100 44700 47100 62000 103000 126000 160000 192000
2021-04-10 13:30 14.28 100000 241000 (1983) 34900 (2003) 83600 38100 40100 44700 47100 62000 103000 126000 160000 192000
2021-04-10 12:30 14.17 99200 241000 (1983) 34900 (2003) 83600 38100 40100 44700 47100 62000 103000 126000 160000 192000
2021-04-10 11:30 13.99 97400 241000 (1983) 34900 (2003) 83600 38100 40100 44700 47100 62000 103000 126000 160000 192000
2021-04-10 10:30 14.01 97600 241000 (1983) 34900 (2003) 83600 38100 40100 44700 47100 62000 103000 126000 160000 192000
2021-04-10 09:30 13.95 97000 241000 (1983) 34900 (2003) 83600 38100 40100 44700 47100 62000 103000 126000 160000 192000
2021-04-10 08:30 13.91 96600 241000 (1983) 34900 (2003) 83600 38100 40100 44700 47100 62000 103000 126000 160000 192000
2021-04-10 07:30 13.90 96500 241000 (1983) 34900 (2003) 83600 38100 40100 44700 47100 62000 103000 126000 160000 192000
2021-04-10 06:30 13.86 96100 241000 (1983) 34900 (2003) 83600 38100 40100 44700 47100 62000 103000 126000 160000 192000
2021-04-10 05:30 13.87 96200 241000 (1983) 34900 (2003) 83600 38100 40100 44700 47100 62000 103000 126000 160000 192000
2021-04-10 04:30 13.75 95000 241000 (1983) 34900 (2003) 83600 38100 40100 44700 47100 62000 103000 126000 160000 192000
2021-04-10 03:30 13.65 94000 241000 (1983) 34900 (2003) 83600 38100 40100 44700 47100 62000 103000 126000 160000 192000
2021-04-10 02:30 13.81 95600 241000 (1983) 34900 (2003) 83600 38100 40100 44700 47100 62000 103000 126000 160000 192000
2021-04-10 01:30 13.84 95900 241000 (1983) 34900 (2003) 83600 38100 40100 44700 47100 62000 103000 126000 160000 192000
2021-04-10 00:30 13.86 96100 241000 (1983) 34900 (2003) 83600 38100 40100 44700 47100 62000 103000 126000 160000 192000
2021-04-09 23:30 13.88 96300 270000 (1983) 34700 (2003) 83800 39000 40400 45500 51200 60500 108000 123000 157000 189000
2021-04-09 22:30 13.90 96500 270000 (1983) 34700 (2003) 83800 39000 40400 45500 51200 60500 108000 123000 157000 189000
2021-04-09 21:30 13.92 96700 270000 (1983) 34700 (2003) 83800 39000 40400 45500 51200 60500 108000 123000 157000 189000
2021-04-09 20:30 13.93 96800 270000 (1983) 34700 (2003) 83800 39000 40400 45500 51200 60500 108000 123000 157000 189000
2021-04-09 19:30 13.94 96900 270000 (1983) 34700 (2003) 83800 39000 40400 45500 51200 60500 108000 123000 157000 189000
2021-04-09 18:30 13.96 97100 270000 (1983) 34700 (2003) 83800 39000 40400 45500 51200 60500 108000 123000 157000 189000
2021-04-09 17:30 13.93 96800 270000 (1983) 34700 (2003) 83800 39000 40400 45500 51200 60500 108000 123000 157000 189000
2021-04-09 16:30 13.86 96100 270000 (1983) 34700 (2003) 83800 39000 40400 45500 51200 60500 108000 123000 157000 189000
2021-04-09 15:30 14.01 97600 270000 (1983) 34700 (2003) 83800 39000 40400 45500 51200 60500 108000 123000 157000 189000
2021-04-09 14:30 14.00 97500 270000 (1983) 34700 (2003) 83800 39000 40400 45500 51200 60500 108000 123000 157000 189000
2021-04-09 13:30 14.01 97600 270000 (1983) 34700 (2003) 83800 39000 40400 45500 51200 60500 108000 123000 157000 189000
2021-04-09 12:30 14.04 97900 270000 (1983) 34700 (2003) 83800 39000 40400 45500 51200 60500 108000 123000 157000 189000
2021-04-09 11:30 14.04 97900 270000 (1983) 34700 (2003) 83800 39000 40400 45500 51200 60500 108000 123000 157000 189000
2021-04-09 10:30 14.03 97800 270000 (1983) 34700 (2003) 83800 39000 40400 45500 51200 60500 108000 123000 157000 189000
2021-04-09 09:30 14.05 98000 270000 (1983) 34700 (2003) 83800 39000 40400 45500 51200 60500 108000 123000 157000 189000
2021-04-09 08:30 14.01 97600 270000 (1983) 34700 (2003) 83800 39000 40400 45500 51200 60500 108000 123000 157000 189000
2021-04-09 07:30 14.03 97800 270000 (1983) 34700 (2003) 83800 39000 40400 45500 51200 60500 108000 123000 157000 189000
2021-04-09 06:30 14.01 97600 270000 (1983) 34700 (2003) 83800 39000 40400 45500 51200 60500 108000 123000 157000 189000
2021-04-09 05:30 14.00 97500 270000 (1983) 34700 (2003) 83800 39000 40400 45500 51200 60500 108000 123000 157000 189000
2021-04-09 04:30 13.99 97400 270000 (1983) 34700 (2003) 83800 39000 40400 45500 51200 60500 108000 123000 157000 189000
2021-04-09 03:30 13.96 97100 270000 (1983) 34700 (2003) 83800 39000 40400 45500 51200 60500 108000 123000 157000 189000
2021-04-09 02:30 13.92 96700 270000 (1983) 34700 (2003) 83800 39000 40400 45500 51200 60500 108000 123000 157000 189000
2021-04-09 01:30 13.91 96600 270000 (1983) 34700 (2003) 83800 39000 40400 45500 51200 60500 108000 123000 157000 189000
2021-04-09 00:30 13.88 96300 270000 (1983) 34700 (2003) 83800 39000 40400 45500 51200 60500 108000 123000 157000 189000
2021-04-08 23:30 13.83 95800 297000 (1983) 33800 (2003) 86200 39600 41000 47300 48500 61600 118000 128000 160000 199000
2021-04-08 22:30 13.79 95400 297000 (1983) 33800 (2003) 86200 39600 41000 47300 48500 61600 118000 128000 160000 199000
2021-04-08 21:30 13.74 94900 297000 (1983) 33800 (2003) 86200 39600 41000 47300 48500 61600 118000 128000 160000 199000
2021-04-08 20:30 13.66 94100 297000 (1983) 33800 (2003) 86200 39600 41000 47300 48500 61600 118000 128000 160000 199000
2021-04-08 19:30 13.63 93800 297000 (1983) 33800 (2003) 86200 39600 41000 47300 48500 61600 118000 128000 160000 199000
2021-04-08 18:30 13.56 93100 297000 (1983) 33800 (2003) 86200 39600 41000 47300 48500 61600 118000 128000 160000 199000
2021-04-08 17:30 13.49 92400 297000 (1983) 33800 (2003) 86200 39600 41000 47300 48500 61600 118000 128000 160000 199000
2021-04-08 16:30 13.37 91300 297000 (1983) 33800 (2003) 86200 39600 41000 47300 48500 61600 118000 128000 160000 199000
2021-04-08 15:30 13.29 90500 297000 (1983) 33800 (2003) 86200 39600 41000 47300 48500 61600 118000 128000 160000 199000
2021-04-08 14:30 13.22 89800 297000 (1983) 33800 (2003) 86200 39600 41000 47300 48500 61600 118000 128000 160000 199000
2021-04-08 13:30 13.13 89000 297000 (1983) 33800 (2003) 86200 39600 41000 47300 48500 61600 118000 128000 160000 199000
2021-04-08 12:30 13.08 88500 297000 (1983) 33800 (2003) 86200 39600 41000 47300 48500 61600 118000 128000 160000 199000
2021-04-08 11:30 13.04 88100 297000 (1983) 33800 (2003) 86200 39600 41000 47300 48500 61600 118000 128000 160000 199000
2021-04-08 10:30 12.99 87600 297000 (1983) 33800 (2003) 86200 39600 41000 47300 48500 61600 118000 128000 160000 199000
2021-04-08 09:30 12.93 87100 297000 (1983) 33800 (2003) 86200 39600 41000 47300 48500 61600 118000 128000 160000 199000
2021-04-08 08:30 12.84 86200 297000 (1983) 33800 (2003) 86200 39600 41000 47300 48500 61600 118000 128000 160000 199000
2021-04-08 07:30 12.78 85700 297000 (1983) 33800 (2003) 86200 39600 41000 47300 48500 61600 118000 128000 160000 199000
2021-04-08 06:30 12.68 84800 297000 (1983) 33800 (2003) 86200 39600 41000 47300 48500 61600 118000 128000 160000 199000
2021-04-08 05:30 12.58 83900 297000 (1983) 33800 (2003) 86200 39600 41000 47300 48500 61600 118000 128000 160000 199000
2021-04-08 04:30 12.52 83300 297000 (1983) 33800 (2003) 86200 39600 41000 47300 48500 61600 118000 128000 160000 199000
2021-04-08 03:30 12.40 82200 297000 (1983) 33800 (2003) 86200 39600 41000 47300 48500 61600 118000 128000 160000 199000
2021-04-08 02:30 12.33 81600 297000 (1983) 33800 (2003) 86200 39600 41000 47300 48500 61600 118000 128000 160000 199000
2021-04-08 01:30 12.25 80900 297000 (1983) 33800 (2003) 86200 39600 41000 47300 48500 61600 118000 128000 160000 199000
2021-04-08 00:30 12.16 80200 297000 (1983) 33800 (2003) 86200 39600 41000 47300 48500 61600 118000 128000 160000 199000
2021-04-07 23:30 12.09 79600 314000 (1983) 33300 (2003) 89800 38700 41700 48300 50900 62700 118000 137000 166000 212000
2021-04-07 22:30 12.01 78900 314000 (1983) 33300 (2003) 89800 38700 41700 48300 50900 62700 118000 137000 166000 212000
2021-04-07 21:30 11.98 78700 314000 (1983) 33300 (2003) 89800 38700 41700 48300 50900 62700 118000 137000 166000 212000
2021-04-07 19:30 11.83 77400 314000 (1983) 33300 (2003) 89800 38700 41700 48300 50900 62700 118000 137000 166000 212000
2021-04-07 18:30 11.71 76400 314000 (1983) 33300 (2003) 89800 38700 41700 48300 50900 62700 118000 137000 166000 212000
2021-04-07 17:30 11.79 77100 314000 (1983) 33300 (2003) 89800 38700 41700 48300 50900 62700 118000 137000 166000 212000
2021-04-07 16:30 11.80 77200 314000 (1983) 33300 (2003) 89800 38700 41700 48300 50900 62700 118000 137000 166000 212000
2021-04-07 15:30 11.68 76200 314000 (1983) 33300 (2003) 89800 38700 41700 48300 50900 62700 118000 137000 166000 212000
2021-04-07 14:30 11.57 75900 314000 (1983) 33300 (2003) 89800 38700 41700 48300 50900 62700 118000 137000 166000 212000
2021-04-07 13:30 11.62 76400 314000 (1983) 33300 (2003) 89800 38700 41700 48300 50900 62700 118000 137000 166000 212000
2021-04-07 12:30 11.59 76100 314000 (1983) 33300 (2003) 89800 38700 41700 48300 50900 62700 118000 137000 166000 212000
2021-04-07 11:30 11.52 75500 314000 (1983) 33300 (2003) 89800 38700 41700 48300 50900 62700 118000 137000 166000 212000
2021-04-07 10:30 11.66 76700 314000 (1983) 33300 (2003) 89800 38700 41700 48300 50900 62700 118000 137000 166000 212000
2021-04-07 09:30 11.50 75400 314000 (1983) 33300 (2003) 89800 38700 41700 48300 50900 62700 118000 137000 166000 212000
2021-04-07 08:30 11.61 76300 314000 (1983) 33300 (2003) 89800 38700 41700 48300 50900 62700 118000 137000 166000 212000
2021-04-07 07:30 11.65 76600 314000 (1983) 33300 (2003) 89800 38700 41700 48300 50900 62700 118000 137000 166000 212000
2021-04-07 06:30 11.70 77000 314000 (1983) 33300 (2003) 89800 38700 41700 48300 50900 62700 118000 137000 166000 212000
2021-04-07 05:30 11.70 77000 314000 (1983) 33300 (2003) 89800 38700 41700 48300 50900 62700 118000 137000 166000 212000
2021-04-07 04:30 11.68 76800 314000 (1983) 33300 (2003) 89800 38700 41700 48300 50900 62700 118000 137000 166000 212000
2021-04-07 03:30 11.71 77100 314000 (1983) 33300 (2003) 89800 38700 41700 48300 50900 62700 118000 137000 166000 212000
2021-04-07 02:30 11.72 77200 314000 (1983) 33300 (2003) 89800 38700 41700 48300 50900 62700 118000 137000 166000 212000
2021-04-07 01:30 11.76 77500 314000 (1983) 33300 (2003) 89800 38700 41700 48300 50900 62700 118000 137000 166000 212000
2021-04-07 00:30 11.79 77700 314000 (1983) 33300 (2003) 89800 38700 41700 48300 50900 62700 118000 137000 166000 212000
2021-04-06 23:30 11.77 77600 327000 (1960) 33200 (2003) 92800 38600 42700 48800 52000 65000 128000 134000 188000 225000
2021-04-06 22:30 11.76 77500 327000 (1960) 33200 (2003) 92800 38600 42700 48800 52000 65000 128000 134000 188000 225000
2021-04-06 21:30 11.81 77900 327000 (1960) 33200 (2003) 92800 38600 42700 48800 52000 65000 128000 134000 188000 225000
2021-04-06 20:30 11.78 77700 327000 (1960) 33200 (2003) 92800 38600 42700 48800 52000 65000 128000 134000 188000 225000
2021-04-06 19:30 11.79 77700 327000 (1960) 33200 (2003) 92800 38600 42700 48800 52000 65000 128000 134000 188000 225000
2021-04-06 18:30 11.72 77200 327000 (1960) 33200 (2003) 92800 38600 42700 48800 52000 65000 128000 134000 188000 225000
2021-04-06 17:30 11.72 77200 327000 (1960) 33200 (2003) 92800 38600 42700 48800 52000 65000 128000 134000 188000 225000
2021-04-06 16:30 11.73 77300 327000 (1960) 33200 (2003) 92800 38600 42700 48800 52000 65000 128000 134000 188000 225000
2021-04-06 15:30 11.72 77200 327000 (1960) 33200 (2003) 92800 38600 42700 48800 52000 65000 128000 134000 188000 225000
2021-04-06 14:30 11.84 78200 327000 (1960) 33200 (2003) 92800 38600 42700 48800 52000 65000 128000 134000 188000 225000
2021-04-06 13:30 11.84 78200 327000 (1960) 33200 (2003) 92800 38600 42700 48800 52000 65000 128000 134000 188000 225000
2021-04-06 12:30 11.78 77700 327000 (1960) 33200 (2003) 92800 38600 42700 48800 52000 65000 128000 134000 188000 225000
2021-04-06 11:30 11.76 77500 327000 (1960) 33200 (2003) 92800 38600 42700 48800 52000 65000 128000 134000 188000 225000
2021-04-06 10:30 11.78 77700 327000 (1960) 33200 (2003) 92800 38600 42700 48800 52000 65000 128000 134000 188000 225000
2021-04-06 09:30 11.78 77700 327000 (1960) 33200 (2003) 92800 38600 42700 48800 52000 65000 128000 134000 188000 225000
2021-04-06 08:30 11.85 78200 327000 (1960) 33200 (2003) 92800 38600 42700 48800 52000 65000 128000 134000 188000 225000
2021-04-06 07:30 11.92 78800 327000 (1960) 33200 (2003) 92800 38600 42700 48800 52000 65000 128000 134000 188000 225000
2021-04-06 06:30 11.92 78800 327000 (1960) 33200 (2003) 92800 38600 42700 48800 52000 65000 128000 134000 188000 225000
2021-04-06 05:30 11.91 78700 327000 (1960) 33200 (2003) 92800 38600 42700 48800 52000 65000 128000 134000 188000 225000
2021-04-06 04:30 11.93 78900 327000 (1960) 33200 (2003) 92800 38600 42700 48800 52000 65000 128000 134000 188000 225000
2021-04-06 03:30 11.93 78900 327000 (1960) 33200 (2003) 92800 38600 42700 48800 52000 65000 128000 134000 188000 225000
2021-04-06 02:30 11.94 79000 327000 (1960) 33200 (2003) 92800 38600 42700 48800 52000 65000 128000 134000 188000 225000
2021-04-06 01:30 11.94 79000 327000 (1960) 33200 (2003) 92800 38600 42700 48800 52000 65000 128000 134000 188000 225000
2021-04-06 00:30 11.93 78900 327000 (1960) 33200 (2003) 92800 38600 42700 48800 52000 65000 128000 134000 188000 225000
2021-04-05 23:30 11.93 78900 329000 (1960) 33500 (2003) 92400 39000 43800 51800 53400 66700 118000 130000 196000 250000
2021-04-05 22:30 11.93 78900 329000 (1960) 33500 (2003) 92400 39000 43800 51800 53400 66700 118000 130000 196000 250000
2021-04-05 21:30 11.94 79000 329000 (1960) 33500 (2003) 92400 39000 43800 51800 53400 66700 118000 130000 196000 250000
2021-04-05 20:30 11.92 78800 329000 (1960) 33500 (2003) 92400 39000 43800 51800 53400 66700 118000 130000 196000 250000
2021-04-05 19:30 11.91 78700 329000 (1960) 33500 (2003) 92400 39000 43800 51800 53400 66700 118000 130000 196000 250000
2021-04-05 18:30 11.85 78200 329000 (1960) 33500 (2003) 92400 39000 43800 51800 53400 66700 118000 130000 196000 250000
2021-04-05 17:30 11.81 77900 329000 (1960) 33500 (2003) 92400 39000 43800 51800 53400 66700 118000 130000 196000 250000
2021-04-05 16:30 11.83 78100 329000 (1960) 33500 (2003) 92400 39000 43800 51800 53400 66700 118000 130000 196000 250000
2021-04-05 15:30 11.84 78200 329000 (1960) 33500 (2003) 92400 39000 43800 51800 53400 66700 118000 130000 196000 250000
2021-04-05 14:30 11.88 78500 329000 (1960) 33500 (2003) 92400 39000 43800 51800 53400 66700 118000 130000 196000 250000
2021-04-05 13:30 11.84 78200 329000 (1960) 33500 (2003) 92400 39000 43800 51800 53400 66700 118000 130000 196000 250000
2021-04-05 12:30 11.95 79100 329000 (1960) 33500 (2003) 92400 39000 43800 51800 53400 66700 118000 130000 196000 250000
2021-04-05 11:30 11.95 79100 329000 (1960) 33500 (2003) 92400 39000 43800 51800 53400 66700 118000 130000 196000 250000
2021-04-05 10:30 11.97 79200 329000 (1960) 33500 (2003) 92400 39000 43800 51800 53400 66700 118000 130000 196000 250000
2021-04-05 09:30 11.95 79100 329000 (1960) 33500 (2003) 92400 39000 43800 51800 53400 66700 118000 130000 196000 250000
2021-04-05 08:30 12.01 79600 329000 (1960) 33500 (2003) 92400 39000 43800 51800 53400 66700 118000 130000 196000 250000
2021-04-05 07:30 12.01 79600 329000 (1960) 33500 (2003) 92400 39000 43800 51800 53400 66700 118000 130000 196000 250000
2021-04-05 06:30 12.04 79800 329000 (1960) 33500 (2003) 92400 39000 43800 51800 53400 66700 118000 130000 196000 250000
2021-04-05 05:30 12.07 80100 329000 (1960) 33500 (2003) 92400 39000 43800 51800 53400 66700 118000 130000 196000 250000
2021-04-05 04:30 12.07 80100 329000 (1960) 33500 (2003) 92400 39000 43800 51800 53400 66700 118000 130000 196000 250000
2021-04-05 03:30 12.08 80200 329000 (1960) 33500 (2003) 92400 39000 43800 51800 53400 66700 118000 130000 196000 250000
2021-04-05 02:30 12.07 80100 329000 (1960) 33500 (2003) 92400 39000 43800 51800 53400 66700 118000 130000 196000 250000
2021-04-05 01:30 12.09 80300 329000 (1960) 33500 (2003) 92400 39000 43800 51800 53400 66700 118000 130000 196000 250000
2021-04-05 00:30 12.09 80300 329000 (1960) 33500 (2003) 92400 39000 43800 51800 53400 66700 118000 130000 196000 250000
2021-04-04 23:30 12.11 80400 324000 (1960) 34200 (2003) 90300 37900 42500 46100 50500 69100 106000 122000 189000 265000
2021-04-04 22:30 12.12 80500 324000 (1960) 34200 (2003) 90300 37900 42500 46100 50500 69100 106000 122000 189000 265000
2021-04-04 21:30 12.14 80700 324000 (1960) 34200 (2003) 90300 37900 42500 46100 50500 69100 106000 122000 189000 265000
2021-04-04 20:30 12.14 80700 324000 (1960) 34200 (2003) 90300 37900 42500 46100 50500 69100 106000 122000 189000 265000
2021-04-04 19:30 12.14 80700 324000 (1960) 34200 (2003) 90300 37900 42500 46100 50500 69100 106000 122000 189000 265000
2021-04-04 18:30 12.13 80600 324000 (1960) 34200 (2003) 90300 37900 42500 46100 50500 69100 106000 122000 189000 265000
2021-04-04 17:30 12.04 79800 324000 (1960) 34200 (2003) 90300 37900 42500 46100 50500 69100 106000 122000 189000 265000
2021-04-04 16:30 12.13 80600 324000 (1960) 34200 (2003) 90300 37900 42500 46100 50500 69100 106000 122000 189000 265000
2021-04-04 15:30 12.09 80300 324000 (1960) 34200 (2003) 90300 37900 42500 46100 50500 69100 106000 122000 189000 265000
2021-04-04 14:30 12.14 80700 324000 (1960) 34200 (2003) 90300 37900 42500 46100 50500 69100 106000 122000 189000 265000
2021-04-04 13:30 12.17 80900 324000 (1960) 34200 (2003) 90300 37900 42500 46100 50500 69100 106000 122000 189000 265000
2021-04-04 12:30 12.21 81300 324000 (1960) 34200 (2003) 90300 37900 42500 46100 50500 69100 106000 122000 189000 265000
2021-04-04 11:30 12.24 81500 324000 (1960) 34200 (2003) 90300 37900 42500 46100 50500 69100 106000 122000 189000 265000
2021-04-04 10:30 12.13 80600 324000 (1960) 34200 (2003) 90300 37900 42500 46100 50500 69100 106000 122000 189000 265000
2021-04-04 09:30 12.29 82000 324000 (1960) 34200 (2003) 90300 37900 42500 46100 50500 69100 106000 122000 189000 265000
2021-04-04 08:30 12.26 81700 324000 (1960) 34200 (2003) 90300 37900 42500 46100 50500 69100 106000 122000 189000 265000
2021-04-04 07:30 12.33 82300 324000 (1960) 34200 (2003) 90300 37900 42500 46100 50500 69100 106000 122000 189000 265000
2021-04-04 06:30 12.35 82500 324000 (1960) 34200 (2003) 90300 37900 42500 46100 50500 69100 106000 122000 189000 265000
2021-04-04 05:30 12.37 82700 324000 (1960) 34200 (2003) 90300 37900 42500 46100 50500 69100 106000 122000 189000 265000
2021-04-04 04:30 12.41 83000 324000 (1960) 34200 (2003) 90300 37900 42500 46100 50500 69100 106000 122000 189000 265000
2021-04-04 03:30 12.42 83100 324000 (1960) 34200 (2003) 90300 37900 42500 46100 50500 69100 106000 122000 189000 265000
2021-04-04 02:30 12.45 83400 324000 (1960) 34200 (2003) 90300 37900 42500 46100 50500 69100 106000 122000 189000 265000
2021-04-04 01:30 12.46 83500 324000 (1960) 34200 (2003) 90300 37900 42500 46100 50500 69100 106000 122000 189000 265000
2021-04-04 00:30 12.47 83600 324000 (1960) 34200 (2003) 90300 37900 42500 46100 50500 69100 106000 122000 189000 265000
2021-04-03 23:30 12.47 83600 315000 (1960) 33800 (2003) 89800 35700 38600 46700 49200 67300 95700 120000 192000 272000
2021-04-03 22:30 12.48 83700 315000 (1960) 33800 (2003) 89800 35700 38600 46700 49200 67300 95700 120000 192000 272000
2021-04-03 21:30 12.48 83700 315000 (1960) 33800 (2003) 89800 35700 38600 46700 49200 67300 95700 120000 192000 272000
2021-04-03 20:30 12.50 83900 315000 (1960) 33800 (2003) 89800 35700 38600 46700 49200 67300 95700 120000 192000 272000
2021-04-03 19:30 12.50 83900 315000 (1960) 33800 (2003) 89800 35700 38600 46700 49200 67300 95700 120000 192000 272000
2021-04-03 18:30 12.49 83800 315000 (1960) 33800 (2003) 89800 35700 38600 46700 49200 67300 95700 120000 192000 272000
2021-04-03 17:30 12.40 82900 315000 (1960) 33800 (2003) 89800 35700 38600 46700 49200 67300 95700 120000 192000 272000
2021-04-03 16:30 12.35 82500 315000 (1960) 33800 (2003) 89800 35700 38600 46700 49200 67300 95700 120000 192000 272000
2021-04-03 15:30 12.44 83300 315000 (1960) 33800 (2003) 89800 35700 38600 46700 49200 67300 95700 120000 192000 272000
2021-04-03 14:30 12.52 84000 315000 (1960) 33800 (2003) 89800 35700 38600 46700 49200 67300 95700 120000 192000 272000
2021-04-03 13:30 12.54 84200 315000 (1960) 33800 (2003) 89800 35700 38600 46700 49200 67300 95700 120000 192000 272000
2021-04-03 12:30 12.49 83800 315000 (1960) 33800 (2003) 89800 35700 38600 46700 49200 67300 95700 120000 192000 272000
2021-04-03 11:30 12.48 83700 315000 (1960) 33800 (2003) 89800 35700 38600 46700 49200 67300 95700 120000 192000 272000
2021-04-03 10:30 12.46 83500 315000 (1960) 33800 (2003) 89800 35700 38600 46700 49200 67300 95700 120000 192000 272000
2021-04-03 09:30 12.62 84900 315000 (1960) 33800 (2003) 89800 35700 38600 46700 49200 67300 95700 120000 192000 272000
2021-04-03 08:30 12.64 85100 315000 (1960) 33800 (2003) 89800 35700 38600 46700 49200 67300 95700 120000 192000 272000
2021-04-03 07:30 12.64 85100 315000 (1960) 33800 (2003) 89800 35700 38600 46700 49200 67300 95700 120000 192000 272000
2021-04-03 06:30 12.65 85200 315000 (1960) 33800 (2003) 89800 35700 38600 46700 49200 67300 95700 120000 192000 272000
2021-04-03 05:30 12.64 85100 315000 (1960) 33800 (2003) 89800 35700 38600 46700 49200 67300 95700 120000 192000 272000
2021-04-03 04:30 12.65 85200 315000 (1960) 33800 (2003) 89800 35700 38600 46700 49200 67300 95700 120000 192000 272000
2021-04-03 03:30 12.65 85200 315000 (1960) 33800 (2003) 89800 35700 38600 46700 49200 67300 95700 120000 192000 272000
2021-04-03 02:30 12.68 85500 315000 (1960) 33800 (2003) 89800 35700 38600 46700 49200 67300 95700 120000 192000 272000
2021-04-03 01:30 12.67 85400 315000 (1960) 33800 (2003) 89800 35700 38600 46700 49200 67300 95700 120000 192000 272000
2021-04-03 00:30 12.68 85500 315000 (1960) 33800 (2003) 89800 35700 38600 46700 49200 67300 95700 120000 192000 272000
2021-04-02 23:30 12.62 84900 302000 (1960) 30400 (1989) 89200 33300 39100 45000 50000 68000 96600 117000 188000 264000
2021-04-02 22:30 12.66 85300 302000 (1960) 30400 (1989) 89200 33300 39100 45000 50000 68000 96600 117000 188000 264000
2021-04-02 21:30 12.69 85600 302000 (1960) 30400 (1989) 89200 33300 39100 45000 50000 68000 96600 117000 188000 264000
2021-04-02 20:30 12.69 85600 302000 (1960) 30400 (1989) 89200 33300 39100 45000 50000 68000 96600 117000 188000 264000
2021-04-02 19:30 12.70 85700 302000 (1960) 30400 (1989) 89200 33300 39100 45000 50000 68000 96600 117000 188000 264000
2021-04-02 18:30 12.61 84900 302000 (1960) 30400 (1989) 89200 33300 39100 45000 50000 68000 96600 117000 188000 264000
2021-04-02 17:30 12.61 84900 302000 (1960) 30400 (1989) 89200 33300 39100 45000 50000 68000 96600 117000 188000 264000
2021-04-02 16:30 12.62 84900 302000 (1960) 30400 (1989) 89200 33300 39100 45000 50000 68000 96600 117000 188000 264000
2021-04-02 15:30 12.67 85400 302000 (1960) 30400 (1989) 89200 33300 39100 45000 50000 68000 96600 117000 188000 264000
2021-04-02 14:30 12.59 84700 302000 (1960) 30400 (1989) 89200 33300 39100 45000 50000 68000 96600 117000 188000 264000
2021-04-02 13:30 12.67 85400 302000 (1960) 30400 (1989) 89200 33300 39100 45000 50000 68000 96600 117000 188000 264000
2021-04-02 12:30 12.62 84900 302000 (1960) 30400 (1989) 89200 33300 39100 45000 50000 68000 96600 117000 188000 264000
2021-04-02 11:30 12.75 86100 302000 (1960) 30400 (1989) 89200 33300 39100 45000 50000 68000 96600 117000 188000 264000
2021-04-02 10:30 12.64 85100 302000 (1960) 30400 (1989) 89200 33300 39100 45000 50000 68000 96600 117000 188000 264000
2021-04-02 09:30 12.75 86100 302000 (1960) 30400 (1989) 89200 33300 39100 45000 50000 68000 96600 117000 188000 264000
2021-04-02 08:30 12.78 86400 302000 (1960) 30400 (1989) 89200 33300 39100 45000 50000 68000 96600 117000 188000 264000
2021-04-02 07:30 12.79 86500 302000 (1960) 30400 (1989) 89200 33300 39100 45000 50000 68000 96600 117000 188000 264000
2021-04-02 06:30 12.85 87100 302000 (1960) 30400 (1989) 89200 33300 39100 45000 50000 68000 96600 117000 188000 264000
2021-04-02 05:30 12.89 87500 302000 (1960) 30400 (1989) 89200 33300 39100 45000 50000 68000 96600 117000 188000 264000
2021-04-02 04:30 12.88 87400 302000 (1960) 30400 (1989) 89200 33300 39100 45000 50000 68000 96600 117000 188000 264000
2021-04-02 03:30 12.90 87500 302000 (1960) 30400 (1989) 89200 33300 39100 45000 50000 68000 96600 117000 188000 264000
2021-04-02 02:30 12.89 87500 302000 (1960) 30400 (1989) 89200 33300 39100 45000 50000 68000 96600 117000 188000 264000
2021-04-02 01:30 12.93 87800 302000 (1960) 30400 (1989) 89200 33300 39100 45000 50000 68000 96600 117000 188000 264000
2021-04-02 00:30 12.95 88000 302000 (1960) 30400 (1989) 89200 33300 39100 45000 50000 68000 96600 117000 188000 264000
2021-04-01 23:30 12.96 88100 292000 (2019) 26800 (1989) 87700 34000 39600 44000 48400 65700 108000 123000 171000 243000
2021-04-01 22:30 13.00 88500 292000 (2019) 26800 (1989) 87700 34000 39600 44000 48400 65700 108000 123000 171000 243000
2021-04-01 21:30 13.03 88800 292000 (2019) 26800 (1989) 87700 34000 39600 44000 48400 65700 108000 123000 171000 243000
2021-04-01 20:30 13.04 88900 292000 (2019) 26800 (1989) 87700 34000 39600 44000 48400 65700 108000 123000 171000 243000
2021-04-01 19:30 13.07 89200 292000 (2019) 26800 (1989) 87700 34000 39600 44000 48400 65700 108000 123000 171000 243000
2021-04-01 18:30 13.11 89500 292000 (2019) 26800 (1989) 87700 34000 39600 44000 48400 65700 108000 123000 171000 243000
2021-04-01 17:30 13.12 89600 292000 (2019) 26800 (1989) 87700 34000 39600 44000 48400 65700 108000 123000 171000 243000
2021-04-01 16:30 13.14 89800 292000 (2019) 26800 (1989) 87700 34000 39600 44000 48400 65700 108000 123000 171000 243000
2021-04-01 15:30 13.17 90100 292000 (2019) 26800 (1989) 87700 34000 39600 44000 48400 65700 108000 123000 171000 243000
2021-04-01 14:30 13.19 90300 292000 (2019) 26800 (1989) 87700 34000 39600 44000 48400 65700 108000 123000 171000 243000
2021-04-01 13:30 13.18 90200 292000 (2019) 26800 (1989) 87700 34000 39600 44000 48400 65700 108000 123000 171000 243000
2021-04-01 12:30 13.25 90900 292000 (2019) 26800 (1989) 87700 34000 39600 44000 48400 65700 108000 123000 171000 243000
2021-04-01 11:30 13.28 91200 292000 (2019) 26800 (1989) 87700 34000 39600 44000 48400 65700 108000 123000 171000 243000
2021-04-01 10:30 13.22 90600 292000 (2019) 26800 (1989) 87700 34000 39600 44000 48400 65700 108000 123000 171000 243000
2021-04-01 09:30 13.25 90900 292000 (2019) 26800 (1989) 87700 34000 39600 44000 48400 65700 108000 123000 171000 243000
2021-04-01 08:30 13.36 92000 292000 (2019) 26800 (1989) 87700 34000 39600 44000 48400 65700 108000 123000 171000 243000
2021-04-01 07:30 13.42 92500 292000 (2019) 26800 (1989) 87700 34000 39600 44000 48400 65700 108000 123000 171000 243000
2021-04-01 06:30 13.43 92600 292000 (2019) 26800 (1989) 87700 34000 39600 44000 48400 65700 108000 123000 171000 243000
2021-04-01 05:30 13.49 93200 292000 (2019) 26800 (1989) 87700 34000 39600 44000 48400 65700 108000 123000 171000 243000
2021-04-01 04:30 13.53 93600 292000 (2019) 26800 (1989) 87700 34000 39600 44000 48400 65700 108000 123000 171000 243000
2021-04-01 03:30 13.57 94000 292000 (2019) 26800 (1989) 87700 34000 39600 44000 48400 65700 108000 123000 171000 243000
2021-04-01 02:30 13.61 94400 292000 (2019) 26800 (1989) 87700 34000 39600 44000 48400 65700 108000 123000 171000 243000
2021-04-01 01:30 13.64 94700 292000 (2019) 26800 (1989) 87700 34000 39600 44000 48400 65700 108000 123000 171000 243000
2021-04-01 00:30 13.70 95300 292000 (2019) 26800 (1989) 87700 34000 39600 44000 48400 65700 108000 123000 171000 243000
2021-03-31 23:30 13.73 95600 285000 (2019) 28000 (1989) 85600 34900 38900 43800 46100 64600 109000 130000 151000 221000
2021-03-31 22:30 13.77 96000 285000 (2019) 28000 (1989) 85600 34900 38900 43800 46100 64600 109000 130000 151000 221000
2021-03-31 21:30 13.80 96300 285000 (2019) 28000 (1989) 85600 34900 38900 43800 46100 64600 109000 130000 151000 221000
2021-03-31 20:30 96800 285000 (2019) 28000 (1989) 85600 34900 38900 43800 46100 64600 109000 130000 151000 221000
2021-03-31 19:30 13.90 97300 285000 (2019) 28000 (1989) 85600 34900 38900 43800 46100 64600 109000 130000 151000 221000
2021-03-31 18:30 13.89 97200 285000 (2019) 28000 (1989) 85600 34900 38900 43800 46100 64600 109000 130000 151000 221000
2021-03-31 17:30 14.05 98800 285000 (2019) 28000 (1989) 85600 34900 38900 43800 46100 64600 109000 130000 151000 221000
2021-03-31 16:30 14.06 98900 285000 (2019) 28000 (1989) 85600 34900 38900 43800 46100 64600 109000 130000 151000 221000
2021-03-31 15:30 14.05 98800 285000 (2019) 28000 (1989) 85600 34900 38900 43800 46100 64600 109000 130000 151000 221000
2021-03-31 14:30 14.20 100000 285000 (2019) 28000 (1989) 85600 34900 38900 43800 46100 64600 109000 130000 151000 221000
2021-03-31 13:30 14.21 100000 285000 (2019) 28000 (1989) 85600 34900 38900 43800 46100 64600 109000 130000 151000 221000
2021-03-31 12:30 14.33 102000 285000 (2019) 28000 (1989) 85600 34900 38900 43800 46100 64600 109000 130000 151000 221000
2021-03-31 11:30 14.41 102000 285000 (2019) 28000 (1989) 85600 34900 38900 43800 46100 64600 109000 130000 151000 221000
2021-03-31 10:30 14.44 103000 285000 (2019) 28000 (1989) 85600 34900 38900 43800 46100 64600 109000 130000 151000 221000
2021-03-31 09:30 14.55 104000 285000 (2019) 28000 (1989) 85600 34900 38900 43800 46100 64600 109000 130000 151000 221000
2021-03-31 08:30 14.64 105000 285000 (2019) 28000 (1989) 85600 34900 38900 43800 46100 64600 109000 130000 151000 221000
2021-03-31 07:30 14.73 106000 285000 (2019) 28000 (1989) 85600 34900 38900 43800 46100 64600 109000 130000 151000 221000
2021-03-31 06:30 14.78 106000 285000 (2019) 28000 (1989) 85600 34900 38900 43800 46100 64600 109000 130000 151000 221000
2021-03-31 05:30 14.85 107000 285000 (2019) 28000 (1989) 85600 34900 38900 43800 46100 64600 109000 130000 151000 221000
2021-03-31 04:30 14.92 108000 285000 (2019) 28000 (1989) 85600 34900 38900 43800 46100 64600 109000 130000 151000 221000
2021-03-31 03:30 15.00 109000 285000 (2019) 28000 (1989) 85600 34900 38900 43800 46100 64600 109000 130000 151000 221000
2021-03-31 02:30 15.07 109000 285000 (2019) 28000 (1989) 85600 34900 38900 43800 46100 64600 109000 130000 151000 221000
2021-03-31 01:30 15.15 110000 285000 (2019) 28000 (1989) 85600 34900 38900 43800 46100 64600 109000 130000 151000 221000
2021-03-31 00:30 15.23 111000 285000 (2019) 28000 (1989) 85600 34900 38900 43800 46100 64600 109000 130000 151000 221000
2021-03-30 23:30 15.29 112000 256000 (2019) 26400 (1989) 84200 34300 39100 44700 49700 62400 100000 120000 166000 224000
2021-03-30 22:30 15.38 112000 256000 (2019) 26400 (1989) 84200 34300 39100 44700 49700 62400 100000 120000 166000 224000
2021-03-30 21:30 15.45 113000 256000 (2019) 26400 (1989) 84200 34300 39100 44700 49700 62400 100000 120000 166000 224000
2021-03-30 20:30 15.54 114000 256000 (2019) 26400 (1989) 84200 34300 39100 44700 49700 62400 100000 120000 166000 224000
2021-03-30 19:30 15.60 115000 256000 (2019) 26400 (1989) 84200 34300 39100 44700 49700 62400 100000 120000 166000 224000
2021-03-30 18:30 15.70 116000 256000 (2019) 26400 (1989) 84200 34300 39100 44700 49700 62400 100000 120000 166000 224000
2021-03-30 17:30 15.74 116000 256000 (2019) 26400 (1989) 84200 34300 39100 44700 49700 62400 100000 120000 166000 224000
2021-03-30 16:30 15.82 117000 256000 (2019) 26400 (1989) 84200 34300 39100 44700 49700 62400 100000 120000 166000 224000
2021-03-30 15:30 15.90 118000 256000 (2019) 26400 (1989) 84200 34300 39100 44700 49700 62400 100000 120000 166000 224000
2021-03-30 14:30 15.94 118000 256000 (2019) 26400 (1989) 84200 34300 39100 44700 49700 62400 100000 120000 166000 224000
2021-03-30 13:30 16.04 119000 256000 (2019) 26400 (1989) 84200 34300 39100 44700 49700 62400 100000 120000 166000 224000
2021-03-30 12:30 16.09 120000 256000 (2019) 26400 (1989) 84200 34300 39100 44700 49700 62400 100000 120000 166000 224000
2021-03-30 11:30 16.12 120000 256000 (2019) 26400 (1989) 84200 34300 39100 44700 49700 62400 100000 120000 166000 224000
2021-03-30 10:30 16.15 120000 256000 (2019) 26400 (1989) 84200 34300 39100 44700 49700 62400 100000 120000 166000 224000
2021-03-30 09:30 16.30 122000 256000 (2019) 26400 (1989) 84200 34300 39100 44700 49700 62400 100000 120000 166000 224000
2021-03-30 08:30 16.32 122000 256000 (2019) 26400 (1989) 84200 34300 39100 44700 49700 62400 100000 120000 166000 224000
2021-03-30 07:30 16.38 123000 256000 (2019) 26400 (1989) 84200 34300 39100 44700 49700 62400 100000 120000 166000 224000
2021-03-30 06:30 16.38 123000 256000 (2019) 26400 (1989) 84200 34300 39100 44700 49700 62400 100000 120000 166000 224000
2021-03-30 05:30 16.44 123000 256000 (2019) 26400 (1989) 84200 34300 39100 44700 49700 62400 100000 120000 166000 224000
2021-03-30 04:30 16.44 123000 256000 (2019) 26400 (1989) 84200 34300 39100 44700 49700 62400 100000 120000 166000 224000
2021-03-30 03:30 16.48 124000 256000 (2019) 26400 (1989) 84200 34300 39100 44700 49700 62400 100000 120000 166000 224000
2021-03-30 02:30 16.48 124000 256000 (2019) 26400 (1989) 84200 34300 39100 44700 49700 62400 100000 120000 166000 224000
2021-03-30 01:30 16.44 123000 256000 (2019) 26400 (1989) 84200 34300 39100 44700 49700 62400 100000 120000 166000 224000
2021-03-30 00:30 16.49 124000 256000 (2019) 26400 (1989) 84200 34300 39100 44700 49700 62400 100000 120000 166000 224000
2021-03-29 23:30 16.44 123000 260000 (1973) 24200 (1989) 85400 33700 36800 44700 50100 62700 95800 130000 179000 205000
2021-03-29 22:30 16.42 123000 260000 (1973) 24200 (1989) 85400 33700 36800 44700 50100 62700 95800 130000 179000 205000
2021-03-29 21:30 16.45 123000 260000 (1973) 24200 (1989) 85400 33700 36800 44700 50100 62700 95800 130000 179000 205000
2021-03-29 20:30 16.41 123000 260000 (1973) 24200 (1989) 85400 33700 36800 44700 50100 62700 95800 130000 179000 205000
2021-03-29 19:30 16.39 123000 260000 (1973) 24200 (1989) 85400 33700 36800 44700 50100 62700 95800 130000 179000 205000
2021-03-29 18:30 16.33 122000 260000 (1973) 24200 (1989) 85400 33700 36800 44700 50100 62700 95800 130000 179000 205000
2021-03-29 17:30 16.33 122000 260000 (1973) 24200 (1989) 85400 33700 36800 44700 50100 62700 95800 130000 179000 205000
2021-03-29 16:30 16.24 121000 260000 (1973) 24200 (1989) 85400 33700 36800 44700 50100 62700 95800 130000 179000 205000
2021-03-29 15:30 16.20 121000 260000 (1973) 24200 (1989) 85400 33700 36800 44700 50100 62700 95800 130000 179000 205000
2021-03-29 14:30 16.16 120000 260000 (1973) 24200 (1989) 85400 33700 36800 44700 50100 62700 95800 130000 179000 205000
2021-03-29 13:30 16.16 120000 260000 (1973) 24200 (1989) 85400 33700 36800 44700 50100 62700 95800 130000 179000 205000
2021-03-29 12:30 16.16 120000 260000 (1973) 24200 (1989) 85400 33700 36800 44700 50100 62700 95800 130000 179000 205000
2021-03-29 11:30 16.15 120000 260000 (1973) 24200 (1989) 85400 33700 36800 44700 50100 62700 95800 130000 179000 205000
2021-03-29 10:30 16.09 120000 260000 (1973) 24200 (1989) 85400 33700 36800 44700 50100 62700 95800 130000 179000 205000
2021-03-29 09:30 16.09 120000 260000 (1973) 24200 (1989) 85400 33700 36800 44700 50100 62700 95800 130000 179000 205000
2021-03-29 08:30 16.02 119000 260000 (1973) 24200 (1989) 85400 33700 36800 44700 50100 62700 95800 130000 179000 205000
2021-03-29 07:30 15.96 118000 260000 (1973) 24200 (1989) 85400 33700 36800 44700 50100 62700 95800 130000 179000 205000
2021-03-29 06:30 15.92 118000 260000 (1973) 24200 (1989) 85400 33700 36800 44700 50100 62700 95800 130000 179000 205000
2021-03-29 05:30 15.89 118000 260000 (1973) 24200 (1989) 85400 33700 36800 44700 50100 62700 95800 130000 179000 205000
2021-03-29 04:30 15.85 117000 260000 (1973) 24200 (1989) 85400 33700 36800 44700 50100 62700 95800 130000 179000 205000
2021-03-29 03:30 15.80 117000 260000 (1973) 24200 (1989) 85400 33700 36800 44700 50100 62700 95800 130000 179000 205000
2021-03-29 02:30 15.76 116000 260000 (1973) 24200 (1989) 85400 33700 36800 44700 50100 62700 95800 130000 179000 205000
2021-03-29 01:30 15.73 116000 260000 (1973) 24200 (1989) 85400 33700 36800 44700 50100 62700 95800 130000 179000 205000
2021-03-29 00:30 15.69 115000 260000 (1973) 24200 (1989) 85400 33700 36800 44700 50100 62700 95800 130000 179000 205000
2021-03-28 23:30 15.65 115000 274000 (2019) 24300 (1989) 83800 32300 36500 41500 44100 60300 96900 120000 178000 230000
2021-03-28 22:30 15.62 115000 274000 (2019) 24300 (1989) 83800 32300 36500 41500 44100 60300 96900 120000 178000 230000
2021-03-28 21:30 15.59 114000 274000 (2019) 24300 (1989) 83800 32300 36500 41500 44100 60300 96900 120000 178000 230000
2021-03-28 20:30 15.57 114000 274000 (2019) 24300 (1989) 83800 32300 36500 41500 44100 60300 96900 120000 178000 230000
2021-03-28 19:30 15.53 114000 274000 (2019) 24300 (1989) 83800 32300 36500 41500 44100 60300 96900 120000 178000 230000
2021-03-28 18:30 15.53 114000 274000 (2019) 24300 (1989) 83800 32300 36500 41500 44100 60300 96900 120000 178000 230000
2021-03-28 17:30 15.49 113000 274000 (2019) 24300 (1989) 83800 32300 36500 41500 44100 60300 96900 120000 178000 230000
2021-03-28 16:30 15.49 113000 274000 (2019) 24300 (1989) 83800 32300 36500 41500 44100 60300 96900 120000 178000 230000
2021-03-28 15:30 15.50 114000 274000 (2019) 24300 (1989) 83800 32300 36500 41500 44100 60300 96900 120000 178000 230000
2021-03-28 14:30 15.51 114000 274000 (2019) 24300 (1989) 83800 32300 36500 41500 44100 60300 96900 120000 178000 230000
2021-03-28 13:30 15.51 114000 274000 (2019) 24300 (1989) 83800 32300 36500 41500 44100 60300 96900 120000 178000 230000
2021-03-28 12:30 15.50 114000 274000 (2019) 24300 (1989) 83800 32300 36500 41500 44100 60300 96900 120000 178000 230000
2021-03-28 11:30 15.49 113000 274000 (2019) 24300 (1989) 83800 32300 36500 41500 44100 60300 96900 120000 178000 230000
2021-03-28 10:30 15.48 113000 274000 (2019) 24300 (1989) 83800 32300 36500 41500 44100 60300 96900 120000 178000 230000
2021-03-28 09:30 15.48 113000 274000 (2019) 24300 (1989) 83800 32300 36500 41500 44100 60300 96900 120000 178000 230000
2021-03-28 08:30 15.51 114000 274000 (2019) 24300 (1989) 83800 32300 36500 41500 44100 60300 96900 120000 178000 230000
2021-03-28 07:30 15.50 114000 274000 (2019) 24300 (1989) 83800 32300 36500 41500 44100 60300 96900 120000 178000 230000
2021-03-28 06:30 15.49 113000 274000 (2019) 24300 (1989) 83800 32300 36500 41500 44100 60300 96900 120000 178000 230000
2021-03-28 05:30 15.47 113000 274000 (2019) 24300 (1989) 83800 32300 36500 41500 44100 60300 96900 120000 178000 230000
2021-03-28 04:30 15.48 113000 274000 (2019) 24300 (1989) 83800 32300 36500 41500 44100 60300 96900 120000 178000 230000
2021-03-28 03:30 15.44 113000 274000 (2019) 24300 (1989) 83800 32300 36500 41500 44100 60300 96900 120000 178000 230000
2021-03-28 02:30 15.45 113000 274000 (2019) 24300 (1989) 83800 32300 36500 41500 44100 60300 96900 120000 178000 230000
2021-03-28 01:30 15.41 113000 274000 (2019) 24300 (1989) 83800 32300 36500 41500 44100 60300 96900 120000 178000 230000
2021-03-28 00:30 15.39 112000 274000 (2019) 24300 (1989) 83800 32300 36500 41500 44100 60300 96900 120000 178000 230000
2021-03-27 23:30 15.37 112000 281000 (2019) 24500 (1989) 80300 28500 33100 40800 44100 57700 89900 109000 183000 242000
2021-03-27 22:30 15.31 112000 281000 (2019) 24500 (1989) 80300 28500 33100 40800 44100 57700 89900 109000 183000 242000
2021-03-27 21:30 15.26 111000 281000 (2019) 24500 (1989) 80300 28500 33100 40800 44100 57700 89900 109000 183000 242000
2021-03-27 20:30 15.23 111000 281000 (2019) 24500 (1989) 80300 28500 33100 40800 44100 57700 89900 109000 183000 242000
2021-03-27 19:30 15.20 111000 281000 (2019) 24500 (1989) 80300 28500 33100 40800 44100 57700 89900 109000 183000 242000
2021-03-27 18:30 15.16 110000 281000 (2019) 24500 (1989) 80300 28500 33100 40800 44100 57700 89900 109000 183000 242000
2021-03-27 17:30 15.13 110000 281000 (2019) 24500 (1989) 80300 28500 33100 40800 44100 57700 89900 109000 183000 242000
2021-03-27 16:30 15.05 109000 281000 (2019) 24500 (1989) 80300 28500 33100 40800 44100 57700 89900 109000 183000 242000
2021-03-27 15:30 15.01 109000 281000 (2019) 24500 (1989) 80300 28500 33100 40800 44100 57700 89900 109000 183000 242000
2021-03-27 14:30 14.88 107000 281000 (2019) 24500 (1989) 80300 28500 33100 40800 44100 57700 89900 109000 183000 242000
2021-03-27 13:30 14.82 107000 281000 (2019) 24500 (1989) 80300 28500 33100 40800 44100 57700 89900 109000 183000 242000
2021-03-27 12:30 14.78 106000 281000 (2019) 24500 (1989) 80300 28500 33100 40800 44100 57700 89900 109000 183000 242000
2021-03-27 11:30 14.77 106000 281000 (2019) 24500 (1989) 80300 28500 33100 40800 44100 57700 89900 109000 183000 242000
2021-03-27 10:30 14.70 105000 281000 (2019) 24500 (1989) 80300 28500 33100 40800 44100 57700 89900 109000 183000 242000
2021-03-27 09:30 14.64 105000 281000 (2019) 24500 (1989) 80300 28500 33100 40800 44100 57700 89900 109000 183000 242000
2021-03-27 07:30 14.49 103000 281000 (2019) 24500 (1989) 80300 28500 33100 40800 44100 57700 89900 109000 183000 242000
2021-03-27 06:30 14.37 102000 281000 (2019) 24500 (1989) 80300 28500 33100 40800 44100 57700 89900 109000 183000 242000
2021-03-27 05:30 14.34 102000 281000 (2019) 24500 (1989) 80300 28500 33100 40800 44100 57700 89900 109000 183000 242000
2021-03-27 04:30 14.26 101000 281000 (2019) 24500 (1989) 80300 28500 33100 40800 44100 57700 89900 109000 183000 242000
2021-03-27 03:30 14.19 100000 281000 (2019) 24500 (1989) 80300 28500 33100 40800 44100 57700 89900 109000 183000 242000
2021-03-27 02:30 14.08 99100 281000 (2019) 24500 (1989) 80300 28500 33100 40800 44100 57700 89900 109000 183000 242000
2021-03-27 01:30 13.99 98200 281000 (2019) 24500 (1989) 80300 28500 33100 40800 44100 57700 89900 109000 183000 242000
2021-03-27 00:30 13.91 97400 281000 (2019) 24500 (1989) 80300 28500 33100 40800 44100 57700 89900 109000 183000 242000
2021-03-26 23:30 13.81 96400 278000 (2019) 20000 (1964) 78000 28000 31200 39200 42600 56200 95100 105000 164000 236000
2021-03-26 22:30 13.76 95900 278000 (2019) 20000 (1964) 78000 28000 31200 39200 42600 56200 95100 105000 164000 236000
2021-03-26 21:30 13.72 95500 278000 (2019) 20000 (1964) 78000 28000 31200 39200 42600 56200 95100 105000 164000 236000
2021-03-26 20:30 13.61 94400 278000 (2019) 20000 (1964) 78000 28000 31200 39200 42600 56200 95100 105000 164000 236000
2021-03-26 19:30 13.54 93700 278000 (2019) 20000 (1964) 78000 28000 31200 39200 42600 56200 95100 105000 164000 236000
2021-03-26 18:30 13.40 92300 278000 (2019) 20000 (1964) 78000 28000 31200 39200 42600 56200 95100 105000 164000 236000
2021-03-26 17:30 13.50 93300 278000 (2019) 20000 (1964) 78000 28000 31200 39200 42600 56200 95100 105000 164000 236000
2021-03-26 16:30 13.44 92700 278000 (2019) 20000 (1964) 78000 28000 31200 39200 42600 56200 95100 105000 164000 236000
2021-03-26 15:30 13.42 92500 278000 (2019) 20000 (1964) 78000 28000 31200 39200 42600 56200 95100 105000 164000 236000
2021-03-26 14:30 13.35 91900 278000 (2019) 20000 (1964) 78000 28000 31200 39200 42600 56200 95100 105000 164000 236000
2021-03-26 13:30 13.30 91400 278000 (2019) 20000 (1964) 78000 28000 31200 39200 42600 56200 95100 105000 164000 236000
2021-03-26 12:30 13.26 91000 278000 (2019) 20000 (1964) 78000 28000 31200 39200 42600 56200 95100 105000 164000 236000
2021-03-26 11:30 13.21 90500 278000 (2019) 20000 (1964) 78000 28000 31200 39200 42600 56200 95100 105000 164000 236000
2021-03-26 10:30 13.16 90000 278000 (2019) 20000 (1964) 78000 28000 31200 39200 42600 56200 95100 105000 164000 236000
2021-03-26 09:30 13.13 89700 278000 (2019) 20000 (1964) 78000 28000 31200 39200 42600 56200 95100 105000 164000 236000
2021-03-26 08:30 13.10 89400 278000 (2019) 20000 (1964) 78000 28000 31200 39200 42600 56200 95100 105000 164000 236000
2021-03-26 07:30 13.04 88900 278000 (2019) 20000 (1964) 78000 28000 31200 39200 42600 56200 95100 105000 164000 236000
2021-03-26 06:30 13.01 88600 278000 (2019) 20000 (1964) 78000 28000 31200 39200 42600 56200 95100 105000 164000 236000
2021-03-26 05:30 12.98 88300 278000 (2019) 20000 (1964) 78000 28000 31200 39200 42600 56200 95100 105000 164000 236000
2021-03-26 04:30 12.94 87900 278000 (2019) 20000 (1964) 78000 28000 31200 39200 42600 56200 95100 105000 164000 236000
2021-03-26 03:30 12.88 87400 278000 (2019) 20000 (1964) 78000 28000 31200 39200 42600 56200 95100 105000 164000 236000
2021-03-26 02:30 12.85 87100 278000 (2019) 20000 (1964) 78000 28000 31200 39200 42600 56200 95100 105000 164000 236000
2021-03-26 01:30 12.81 86700 278000 (2019) 20000 (1964) 78000 28000 31200 39200 42600 56200 95100 105000 164000 236000
2021-03-26 00:30 12.77 86300 278000 (2019) 20000 (1964) 78000 28000 31200 39200 42600 56200 95100 105000 164000 236000
2021-03-25 23:30 12.73 86000 269000 (2019) 17300 (1964) 75000 26200 31500 38200 39800 57600 84500 112000 153000 213000
2021-03-25 22:30 12.69 85600 269000 (2019) 17300 (1964) 75000 26200 31500 38200 39800 57600 84500 112000 153000 213000
2021-03-25 21:30 12.68 85500 269000 (2019) 17300 (1964) 75000 26200 31500 38200 39800 57600 84500 112000 153000 213000
2021-03-25 20:30 12.64 85100 269000 (2019) 17300 (1964) 75000 26200 31500 38200 39800 57600 84500 112000 153000 213000
2021-03-25 19:30 12.62 84900 269000 (2019) 17300 (1964) 75000 26200 31500 38200 39800 57600 84500 112000 153000 213000
2021-03-25 18:30 12.59 84700 269000 (2019) 17300 (1964) 75000 26200 31500 38200 39800 57600 84500 112000 153000 213000
2021-03-25 17:30 12.57 84500 269000 (2019) 17300 (1964) 75000 26200 31500 38200 39800 57600 84500 112000 153000 213000
2021-03-25 16:30 12.55 84300 269000 (2019) 17300 (1964) 75000 26200 31500 38200 39800 57600 84500 112000 153000 213000
2021-03-25 15:30 12.43 83200 269000 (2019) 17300 (1964) 75000 26200 31500 38200 39800 57600 84500 112000 153000 213000
2021-03-25 14:30 12.39 82900 269000 (2019) 17300 (1964) 75000 26200 31500 38200 39800 57600 84500 112000 153000 213000
2021-03-25 13:30 12.37 82700 269000 (2019) 17300 (1964) 75000 26200 31500 38200 39800 57600 84500 112000 153000 213000
2021-03-25 12:30 12.36 82600 269000 (2019) 17300 (1964) 75000 26200 31500 38200 39800 57600 84500 112000 153000 213000
2021-03-25 11:30 12.35 82500 269000 (2019) 17300 (1964) 75000 26200 31500 38200 39800 57600 84500 112000 153000 213000
2021-03-25 10:30 12.31 82100 269000 (2019) 17300 (1964) 75000 26200 31500 38200 39800 57600 84500 112000 153000 213000
2021-03-25 09:30 12.24 81500 269000 (2019) 17300 (1964) 75000 26200 31500 38200 39800 57600 84500 112000 153000 213000
2021-03-25 08:30 12.26 81700 269000 (2019) 17300 (1964) 75000 26200 31500 38200 39800 57600 84500 112000 153000 213000
2021-03-25 07:30 12.27 81800 269000 (2019) 17300 (1964) 75000 26200 31500 38200 39800 57600 84500 112000 153000 213000
2021-03-25 06:30 12.29 82000 269000 (2019) 17300 (1964) 75000 26200 31500 38200 39800 57600 84500 112000 153000 213000
2021-03-25 05:30 12.28 81900 269000 (2019) 17300 (1964) 75000 26200 31500 38200 39800 57600 84500 112000 153000 213000
2021-03-25 04:30 12.24 81500 269000 (2019) 17300 (1964) 75000 26200 31500 38200 39800 57600 84500 112000 153000 213000
2021-03-25 03:30 12.21 81300 269000 (2019) 17300 (1964) 75000 26200 31500 38200 39800 57600 84500 112000 153000 213000
2021-03-25 02:30 12.21 81300 269000 (2019) 17300 (1964) 75000 26200 31500 38200 39800 57600 84500 112000 153000 213000
2021-03-25 01:30 12.20 81200 269000 (2019) 17300 (1964) 75000 26200 31500 38200 39800 57600 84500 112000 153000 213000
2021-03-25 00:30 12.21 81300 269000 (2019) 17300 (1964) 75000 26200 31500 38200 39800 57600 84500 112000 153000 213000
2021-03-24 23:30 12.22 81400 255000 (2019) 17300 (1964) 73500 26800 31300 35700 39000 56600 90200 114000 146000 205000
2021-03-24 22:30 12.22 81400 255000 (2019) 17300 (1964) 73500 26800 31300 35700 39000 56600 90200 114000 146000 205000
2021-03-24 21:30 12.25 81600 255000 (2019) 17300 (1964) 73500 26800 31300 35700 39000 56600 90200 114000 146000 205000
2021-03-24 20:30 12.26 81700 255000 (2019) 17300 (1964) 73500 26800 31300 35700 39000 56600 90200 114000 146000 205000
2021-03-24 19:30 12.28 81900 255000 (2019) 17300 (1964) 73500 26800 31300 35700 39000 56600 90200 114000 146000 205000
2021-03-24 18:30 12.29 82000 255000 (2019) 17300 (1964) 73500 26800 31300 35700 39000 56600 90200 114000 146000 205000
2021-03-24 17:30 12.30 82000 255000 (2019) 17300 (1964) 73500 26800 31300 35700 39000 56600 90200 114000 146000 205000
2021-03-24 16:30 12.30 82000 255000 (2019) 17300 (1964) 73500 26800 31300 35700 39000 56600 90200 114000 146000 205000
2021-03-24 15:30 12.27 81800 255000 (2019) 17300 (1964) 73500 26800 31300 35700 39000 56600 90200 114000 146000 205000
2021-03-24 14:30 12.28 81900 255000 (2019) 17300 (1964) 73500 26800 31300 35700 39000 56600 90200 114000 146000 205000
2021-03-24 13:30 12.34 82400 255000 (2019) 17300 (1964) 73500 26800 31300 35700 39000 56600 90200 114000 146000 205000
2021-03-24 12:30 12.23 81400 255000 (2019) 17300 (1964) 73500 26800 31300 35700 39000 56600 90200 114000 146000 205000
2021-03-24 11:30 12.26 81700 255000 (2019) 17300 (1964) 73500 26800 31300 35700 39000 56600 90200 114000 146000 205000
2021-03-24 10:30 12.35 82500 255000 (2019) 17300 (1964) 73500 26800 31300 35700 39000 56600 90200 114000 146000 205000
2021-03-24 09:30 12.33 82300 255000 (2019) 17300 (1964) 73500 26800 31300 35700 39000 56600 90200 114000 146000 205000
2021-03-24 08:30 12.32 82200 255000 (2019) 17300 (1964) 73500 26800 31300 35700 39000 56600 90200 114000 146000 205000
2021-03-24 07:30 12.33 82300 255000 (2019) 17300 (1964) 73500 26800 31300 35700 39000 56600 90200 114000 146000 205000
2021-03-24 06:30 12.35 82500 255000 (2019) 17300 (1964) 73500 26800 31300 35700 39000 56600 90200 114000 146000 205000
2021-03-24 05:30 12.34 82400 255000 (2019) 17300 (1964) 73500 26800 31300 35700 39000 56600 90200 114000 146000 205000
2021-03-24 04:30 12.32 82200 255000 (2019) 17300 (1964) 73500 26800 31300 35700 39000 56600 90200 114000 146000 205000
2021-03-24 03:30 12.35 82500 255000 (2019) 17300 (1964) 73500 26800 31300 35700 39000 56600 90200 114000 146000 205000
2021-03-24 02:30 12.35 82500 255000 (2019) 17300 (1964) 73500 26800 31300 35700 39000 56600 90200 114000 146000 205000
2021-03-24 01:30 12.33 82300 255000 (2019) 17300 (1964) 73500 26800 31300 35700 39000 56600 90200 114000 146000 205000
2021-03-24 00:30 12.37 82700 255000 (2019) 17300 (1964) 73500 26800 31300 35700 39000 56600 90200 114000 146000 205000
2021-03-23 23:30 12.32 82200 246000 (2019) 17800 (1964) 74800 24600 30300 33600 38800 56500 92500 112000 155000 204000
2021-03-23 22:30 12.41 83000 246000 (2019) 17800 (1964) 74800 24600 30300 33600 38800 56500 92500 112000 155000 204000
2021-03-23 21:30 12.46 83500 246000 (2019) 17800 (1964) 74800 24600 30300 33600 38800 56500 92500 112000 155000 204000
2021-03-23 20:30 12.47 83600 246000 (2019) 17800 (1964) 74800 24600 30300 33600 38800 56500 92500 112000 155000 204000
2021-03-23 19:30 12.51 83900 246000 (2019) 17800 (1964) 74800 24600 30300 33600 38800 56500 92500 112000 155000 204000
2021-03-23 18:30 12.46 83500 246000 (2019) 17800 (1964) 74800 24600 30300 33600 38800 56500 92500 112000 155000 204000
2021-03-23 17:30 12.48 83700 246000 (2019) 17800 (1964) 74800 24600 30300 33600 38800 56500 92500 112000 155000 204000
2021-03-23 16:30 12.63 85000 246000 (2019) 17800 (1964) 74800 24600 30300 33600 38800 56500 92500 112000 155000 204000
2021-03-23 15:30 12.66 85300 246000 (2019) 17800 (1964) 74800 24600 30300 33600 38800 56500 92500 112000 155000 204000
2021-03-23 14:30 12.53 84100 246000 (2019) 17800 (1964) 74800 24600 30300 33600 38800 56500 92500 112000 155000 204000
2021-03-23 13:30 12.58 84600 246000 (2019) 17800 (1964) 74800 24600 30300 33600 38800 56500 92500 112000 155000 204000
2021-03-23 12:30 12.67 85400 246000 (2019) 17800 (1964) 74800 24600 30300 33600 38800 56500 92500 112000 155000 204000
2021-03-23 11:30 12.73 86000 246000 (2019) 17800 (1964) 74800 24600 30300 33600 38800 56500 92500 112000 155000 204000
2021-03-23 10:30 12.78 86400 246000 (2019) 17800 (1964) 74800 24600 30300 33600 38800 56500 92500 112000 155000 204000
2021-03-23 09:30 12.87 87300 246000 (2019) 17800 (1964) 74800 24600 30300 33600 38800 56500 92500 112000 155000 204000
2021-03-23 08:30 12.87 87300 246000 (2019) 17800 (1964) 74800 24600 30300 33600 38800 56500 92500 112000 155000 204000
2021-03-23 07:30 12.93 87800 246000 (2019) 17800 (1964) 74800 24600 30300 33600 38800 56500 92500 112000 155000 204000
2021-03-23 06:30 12.90 87500 246000 (2019) 17800 (1964) 74800 24600 30300 33600 38800 56500 92500 112000 155000 204000
2021-03-23 05:30 12.93 87800 246000 (2019) 17800 (1964) 74800 24600 30300 33600 38800 56500 92500 112000 155000 204000
2021-03-23 04:30 13.13 89700 246000 (2019) 17800 (1964) 74800 24600 30300 33600 38800 56500 92500 112000 155000 204000
2021-03-23 03:30 13.20 90400 246000 (2019) 17800 (1964) 74800 24600 30300 33600 38800 56500 92500 112000 155000 204000
2021-03-23 02:30 13.24 90800 246000 (2019) 17800 (1964) 74800 24600 30300 33600 38800 56500 92500 112000 155000 204000
2021-03-23 01:30 13.20 90400 246000 (2019) 17800 (1964) 74800 24600 30300 33600 38800 56500 92500 112000 155000 204000
2021-03-23 00:30 13.28 91200 246000 (2019) 17800 (1964) 74800 24600 30300 33600 38800 56500 92500 112000 155000 204000
2021-03-22 23:30 13.37 92000 240000 (2019) 18000 (1964) 77400 22900 29300 34900 39300 59000 96300 119000 153000 201000
2021-03-22 22:30 13.43 92600 240000 (2019) 18000 (1964) 77400 22900 29300 34900 39300 59000 96300 119000 153000 201000
2021-03-22 21:30 13.51 93400 240000 (2019) 18000 (1964) 77400 22900 29300 34900 39300 59000 96300 119000 153000 201000
2021-03-22 20:30 13.59 94200 240000 (2019) 18000 (1964) 77400 22900 29300 34900 39300 59000 96300 119000 153000 201000
2021-03-22 19:30 13.62 94500 240000 (2019) 18000 (1964) 77400 22900 29300 34900 39300 59000 96300 119000 153000 201000
2021-03-22 18:30 13.67 95000 240000 (2019) 18000 (1964) 77400 22900 29300 34900 39300 59000 96300 119000 153000 201000
2021-03-22 17:30 13.75 95800 240000 (2019) 18000 (1964) 77400 22900 29300 34900 39300 59000 96300 119000 153000 201000
2021-03-22 16:30 13.74 95700 240000 (2019) 18000 (1964) 77400 22900 29300 34900 39300 59000 96300 119000 153000 201000
2021-03-22 15:30 13.87 97000 240000 (2019) 18000 (1964) 77400 22900 29300 34900 39300 59000 96300 119000 153000 201000
2021-03-22 14:30 13.86 96900 240000 (2019) 18000 (1964) 77400 22900 29300 34900 39300 59000 96300 119000 153000 201000
2021-03-22 13:30 13.97 98000 240000 (2019) 18000 (1964) 77400 22900 29300 34900 39300 59000 96300 119000 153000 201000
2021-03-22 12:30 14.03 98600 240000 (2019) 18000 (1964) 77400 22900 29300 34900 39300 59000 96300 119000 153000 201000
2021-03-22 11:30 14.11 99400 240000 (2019) 18000 (1964) 77400 22900 29300 34900 39300 59000 96300 119000 153000 201000
2021-03-22 10:30 14.19 100000 240000 (2019) 18000 (1964) 77400 22900 29300 34900 39300 59000 96300 119000 153000 201000
2021-03-22 09:30 14.26 101000 240000 (2019) 18000 (1964) 77400 22900 29300 34900 39300 59000 96300 119000 153000 201000
2021-03-22 08:30 14.33 102000 240000 (2019) 18000 (1964) 77400 22900 29300 34900 39300 59000 96300 119000 153000 201000
2021-03-22 07:30 14.40 109000 240000 (2019) 18000 (1964) 77400 22900 29300 34900 39300 59000 96300 119000 153000 201000
2021-03-22 06:30 14.45 110000 240000 (2019) 18000 (1964) 77400 22900 29300 34900 39300 59000 96300 119000 153000 201000
2021-03-22 05:30 14.55 111000 240000 (2019) 18000 (1964) 77400 22900 29300 34900 39300 59000 96300 119000 153000 201000
2021-03-22 04:30 14.61 111000 240000 (2019) 18000 (1964) 77400 22900 29300 34900 39300 59000 96300 119000 153000 201000
2021-03-22 03:30 14.68 112000 240000 (2019) 18000 (1964) 77400 22900 29300 34900 39300 59000 96300 119000 153000 201000
2021-03-22 02:30 14.75 112000 240000 (2019) 18000 (1964) 77400 22900 29300 34900 39300 59000 96300 119000 153000 201000
2021-03-22 01:30 14.83 113000 240000 (2019) 18000 (1964) 77400 22900 29300 34900 39300 59000 96300 119000 153000 201000
2021-03-22 00:30 14.91 114000 240000 (2019) 18000 (1964) 77400 22900 29300 34900 39300 59000 96300 119000 153000 201000
2021-03-21 23:30 14.99 115000 239000 (2019) 17100 (1964) 78000 22600 28500 36700 39800 62400 107000 119000 161000 194000
2021-03-21 22:30 15.08 116000 239000 (2019) 17100 (1964) 78000 22600 28500 36700 39800 62400 107000 119000 161000 194000
2021-03-21 21:30 15.14 116000 239000 (2019) 17100 (1964) 78000 22600 28500 36700 39800 62400 107000 119000 161000 194000
2021-03-21 20:30 15.23 117000 239000 (2019) 17100 (1964) 78000 22600 28500 36700 39800 62400 107000 119000 161000 194000
2021-03-21 19:30 15.32 118000 239000 (2019) 17100 (1964) 78000 22600 28500 36700 39800 62400 107000 119000 161000 194000
2021-03-21 18:30 15.40 119000 239000 (2019) 17100 (1964) 78000 22600 28500 36700 39800 62400 107000 119000 161000 194000
2021-03-21 17:30 15.49 120000 239000 (2019) 17100 (1964) 78000 22600 28500 36700 39800 62400 107000 119000 161000 194000
2021-03-21 16:30 15.59 121000 239000 (2019) 17100 (1964) 78000 22600 28500 36700 39800 62400 107000 119000 161000 194000
2021-03-21 15:30 15.70 122000 239000 (2019) 17100 (1964) 78000 22600 28500 36700 39800 62400 107000 119000 161000 194000
2021-03-21 14:30 15.85 124000 239000 (2019) 17100 (1964) 78000 22600 28500 36700 39800 62400 107000 119000 161000 194000
2021-03-21 13:30 16.03 126000 239000 (2019) 17100 (1964) 78000 22600 28500 36700 39800 62400 107000 119000 161000 194000
2021-03-21 12:30 16.14 127000 239000 (2019) 17100 (1964) 78000 22600 28500 36700 39800 62400 107000 119000 161000 194000
2021-03-21 11:30 16.32 129000 239000 (2019) 17100 (1964) 78000 22600 28500 36700 39800 62400 107000 119000 161000 194000
2021-03-21 10:30 16.49 130000 239000 (2019) 17100 (1964) 78000 22600 28500 36700 39800 62400 107000 119000 161000 194000
2021-03-21 09:30 16.68 132000 239000 (2019) 17100 (1964) 78000 22600 28500 36700 39800 62400 107000 119000 161000 194000
2021-03-21 08:30 16.87 134000 239000 (2019) 17100 (1964) 78000 22600 28500 36700 39800 62400 107000 119000 161000 194000
2021-03-21 07:30 17.03 136000 239000 (2019) 17100 (1964) 78000 22600 28500 36700 39800 62400 107000 119000 161000 194000
2021-03-21 06:30 17.22 138000 239000 (2019) 17100 (1964) 78000 22600 28500 36700 39800 62400 107000 119000 161000 194000
2021-03-21 05:30 17.39 140000 239000 (2019) 17100 (1964) 78000 22600 28500 36700 39800 62400 107000 119000 161000 194000
2021-03-21 04:30 17.52 141000 239000 (2019) 17100 (1964) 78000 22600 28500 36700 39800 62400 107000 119000 161000 194000
2021-03-21 03:30 17.66 143000 239000 (2019) 17100 (1964) 78000 22600 28500 36700 39800 62400 107000 119000 161000 194000
2021-03-21 02:30 17.83 145000 239000 (2019) 17100 (1964) 78000 22600 28500 36700 39800 62400 107000 119000 161000 194000
2021-03-21 01:30 18.00 147000 239000 (2019) 17100 (1964) 78000 22600 28500 36700 39800 62400 107000 119000 161000 194000
2021-03-21 00:30 18.14 148000 239000 (2019) 17100 (1964) 78000 22600 28500 36700 39800 62400 107000 119000 161000 194000
2021-03-20 23:30 18.28 149000 243000 (2019) 16600 (1964) 76000 22800 28100 36900 39800 63300 94600 113000 174000 189000
2021-03-20 22:30 18.40 151000 243000 (2019) 16600 (1964) 76000 22800 28100 36900 39800 63300 94600 113000 174000 189000
2021-03-20 21:30 18.58 152000 243000 (2019) 16600 (1964) 76000 22800 28100 36900 39800 63300 94600 113000 174000 189000
2021-03-20 20:30 18.71 154000 243000 (2019) 16600 (1964) 76000 22800 28100 36900 39800 63300 94600 113000 174000 189000
2021-03-20 19:30 18.86 155000 243000 (2019) 16600 (1964) 76000 22800 28100 36900 39800 63300 94600 113000 174000 189000
2021-03-20 18:30 19.00 157000 243000 (2019) 16600 (1964) 76000 22800 28100 36900 39800 63300 94600 113000 174000 189000
2021-03-20 16:30 19.28 160000 243000 (2019) 16600 (1964) 76000 22800 28100 36900 39800 63300 94600 113000 174000 189000
2021-03-20 15:30 19.38 161000 243000 (2019) 16600 (1964) 76000 22800 28100 36900 39800 63300 94600 113000 174000 189000
2021-03-20 14:30 19.55 163000 243000 (2019) 16600 (1964) 76000 22800 28100 36900 39800 63300 94600 113000 174000 189000
2021-03-20 13:30 19.63 164000 243000 (2019) 16600 (1964) 76000 22800 28100 36900 39800 63300 94600 113000 174000 189000
2021-03-20 12:30 19.79 165000 243000 (2019) 16600 (1964) 76000 22800 28100 36900 39800 63300 94600 113000 174000 189000
2021-03-20 11:30 19.98 167000 243000 (2019) 16600 (1964) 76000 22800 28100 36900 39800 63300 94600 113000 174000 189000
2021-03-20 10:30 20.13 169000 243000 (2019) 16600 (1964) 76000 22800 28100 36900 39800 63300 94600 113000 174000 189000
2021-03-20 09:30 20.26 170000 243000 (2019) 16600 (1964) 76000 22800 28100 36900 39800 63300 94600 113000 174000 189000
2021-03-20 08:30 20.30 171000 243000 (2019) 16600 (1964) 76000 22800 28100 36900 39800 63300 94600 113000 174000 189000
2021-03-20 07:30 20.46 173000 243000 (2019) 16600 (1964) 76000 22800 28100 36900 39800 63300 94600 113000 174000 189000
2021-03-20 06:30 20.60 174000 243000 (2019) 16600 (1964) 76000 22800 28100 36900 39800 63300 94600 113000 174000 189000
2021-03-20 05:30 20.68 175000 243000 (2019) 16600 (1964) 76000 22800 28100 36900 39800 63300 94600 113000 174000 189000
2021-03-20 04:30 20.79 176000 243000 (2019) 16600 (1964) 76000 22800 28100 36900 39800 63300 94600 113000 174000 189000
2021-03-20 03:30 20.93 178000 243000 (2019) 16600 (1964) 76000 22800 28100 36900 39800 63300 94600 113000 174000 189000
2021-03-20 02:30 21.03 179000 243000 (2019) 16600 (1964) 76000 22800 28100 36900 39800 63300 94600 113000 174000 189000
2021-03-20 01:30 21.16 181000 243000 (2019) 16600 (1964) 76000 22800 28100 36900 39800 63300 94600 113000 174000 189000
2021-03-20 00:30 21.31 182000 243000 (2019) 16600 (1964) 76000 22800 28100 36900 39800 63300 94600 113000 174000 189000
2021-03-19 23:30 21.44 184000 249000 (2019) 16000 (1964) 73500 23300 27100 36300 40700 54000 94500 106000 156000 168000
2021-03-19 22:30 21.49 184000 249000 (2019) 16000 (1964) 73500 23300 27100 36300 40700 54000 94500 106000 156000 168000
2021-03-19 21:30 21.65 186000 249000 (2019) 16000 (1964) 73500 23300 27100 36300 40700 54000 94500 106000 156000 168000
2021-03-19 20:30 21.75 188000 249000 (2019) 16000 (1964) 73500 23300 27100 36300 40700 54000 94500 106000 156000 168000
2021-03-19 19:30 21.72 187000 249000 (2019) 16000 (1964) 73500 23300 27100 36300 40700 54000 94500 106000 156000 168000
2021-03-19 18:30 21.83 188000 249000 (2019) 16000 (1964) 73500 23300 27100 36300 40700 54000 94500 106000 156000 168000
2021-03-19 17:30 21.82 188000 249000 (2019) 16000 (1964) 73500 23300 27100 36300 40700 54000 94500 106000 156000 168000
2021-03-19 16:30 21.96 190000 249000 (2019) 16000 (1964) 73500 23300 27100 36300 40700 54000 94500 106000 156000 168000
2021-03-19 15:30 22.06 184000 249000 (2019) 16000 (1964) 73500 23300 27100 36300 40700 54000 94500 106000 156000 168000
2021-03-19 14:30 22.11 185000 249000 (2019) 16000 (1964) 73500 23300 27100 36300 40700 54000 94500 106000 156000 168000
2021-03-19 13:30 22.23 186000 249000 (2019) 16000 (1964) 73500 23300 27100 36300 40700 54000 94500 106000 156000 168000
2021-03-19 12:30 22.31 187000 249000 (2019) 16000 (1964) 73500 23300 27100 36300 40700 54000 94500 106000 156000 168000
2021-03-19 11:30 22.41 188000 249000 (2019) 16000 (1964) 73500 23300 27100 36300 40700 54000 94500 106000 156000 168000
2021-03-19 10:30 22.58 190000 249000 (2019) 16000 (1964) 73500 23300 27100 36300 40700 54000 94500 106000 156000 168000
2021-03-19 09:30 22.65 190000 249000 (2019) 16000 (1964) 73500 23300 27100 36300 40700 54000 94500 106000 156000 168000
2021-03-19 08:30 22.81 192000 249000 (2019) 16000 (1964) 73500 23300 27100 36300 40700 54000 94500 106000 156000 168000
2021-03-19 07:30 22.84 193000 249000 (2019) 16000 (1964) 73500 23300 27100 36300 40700 54000 94500 106000 156000 168000
2021-03-19 06:30 22.86 193000 249000 (2019) 16000 (1964) 73500 23300 27100 36300 40700 54000 94500 106000 156000 168000
2021-03-19 05:30 22.84 193000 249000 (2019) 16000 (1964) 73500 23300 27100 36300 40700 54000 94500 106000 156000 168000
2021-03-19 04:30 22.88 193000 249000 (2019) 16000 (1964) 73500 23300 27100 36300 40700 54000 94500 106000 156000 168000
2021-03-19 03:30 22.89 193000 249000 (2019) 16000 (1964) 73500 23300 27100 36300 40700 54000 94500 106000 156000 168000
2021-03-19 02:30 22.90 193000 249000 (2019) 16000 (1964) 73500 23300 27100 36300 40700 54000 94500 106000 156000 168000
2021-03-19 01:30 22.91 193000 249000 (2019) 16000 (1964) 73500 23300 27100 36300 40700 54000 94500 106000 156000 168000
2021-03-19 00:30 22.86 193000 249000 (2019) 16000 (1964) 73500 23300 27100 36300 40700 54000 94500 106000 156000 168000
2021-03-18 23:30 23.01 194000 259000 (2019) 15800 (1964) 72800 23600 27100 37900 40400 57000 94300 111000 141000 186000
2021-03-18 22:30 23.19 197000 259000 (2019) 15800 (1964) 72800 23600 27100 37900 40400 57000 94300 111000 141000 186000
2021-03-18 21:30 23.22 197000 259000 (2019) 15800 (1964) 72800 23600 27100 37900 40400 57000 94300 111000 141000 186000
2021-03-18 20:30 23.19 197000 259000 (2019) 15800 (1964) 72800 23600 27100 37900 40400 57000 94300 111000 141000 186000
2021-03-18 19:30 23.14 196000 259000 (2019) 15800 (1964) 72800 23600 27100 37900 40400 57000 94300 111000 141000 186000
2021-03-18 18:30 23.10 196000 259000 (2019) 15800 (1964) 72800 23600 27100 37900 40400 57000 94300 111000 141000 186000
2021-03-18 17:30 22.97 194000 259000 (2019) 15800 (1964) 72800 23600 27100 37900 40400 57000 94300 111000 141000 186000
2021-03-18 16:30 22.90 193000 259000 (2019) 15800 (1964) 72800 23600 27100 37900 40400 57000 94300 111000 141000 186000
2021-03-18 15:30 22.91 193000 259000 (2019) 15800 (1964) 72800 23600 27100 37900 40400 57000 94300 111000 141000 186000
2021-03-18 14:30 22.96 194000 259000 (2019) 15800 (1964) 72800 23600 27100 37900 40400 57000 94300 111000 141000 186000
2021-03-18 13:30 22.73 191000 259000 (2019) 15800 (1964) 72800 23600 27100 37900 40400 57000 94300 111000 141000 186000
2021-03-18 12:30 22.67 191000 259000 (2019) 15800 (1964) 72800 23600 27100 37900 40400 57000 94300 111000 141000 186000
2021-03-18 11:30 22.51 189000 259000 (2019) 15800 (1964) 72800 23600 27100 37900 40400 57000 94300 111000 141000 186000
2021-03-18 10:30 22.39 188000 259000 (2019) 15800 (1964) 72800 23600 27100 37900 40400 57000 94300 111000 141000 186000
2021-03-18 09:30 22.33 187000 259000 (2019) 15800 (1964) 72800 23600 27100 37900 40400 57000 94300 111000 141000 186000
2021-03-18 08:30 22.16 185000 259000 (2019) 15800 (1964) 72800 23600 27100 37900 40400 57000 94300 111000 141000 186000
2021-03-18 07:30 21.97 183000 259000 (2019) 15800 (1964) 72800 23600 27100 37900 40400 57000 94300 111000 141000 186000
2021-03-18 06:30 21.81 181000 259000 (2019) 15800 (1964) 72800 23600 27100 37900 40400 57000 94300 111000 141000 186000
2021-03-18 05:30 21.65 180000 259000 (2019) 15800 (1964) 72800 23600 27100 37900 40400 57000 94300 111000 141000 186000
2021-03-18 04:30 21.42 177000 259000 (2019) 15800 (1964) 72800 23600 27100 37900 40400 57000 94300 111000 141000 186000
2021-03-18 03:30 21.21 175000 259000 (2019) 15800 (1964) 72800 23600 27100 37900 40400 57000 94300 111000 141000 186000
2021-03-18 02:30 20.98 173000 259000 (2019) 15800 (1964) 72800 23600 27100 37900 40400 57000 94300 111000 141000 186000
2021-03-18 01:30 20.68 170000 259000 (2019) 15800 (1964) 72800 23600 27100 37900 40400 57000 94300 111000 141000 186000
2021-03-18 00:30 20.54 168000 259000 (2019) 15800 (1964) 72800 23600 27100 37900 40400 57000 94300 111000 141000 186000
2021-03-17 23:30 20.31 166000 259000 (2019) 15800 (1964) 73500 24000 26900 40400 42900 58500 87800 105000 127000 196000
2021-03-17 22:30 20.23 165000 259000 (2019) 15800 (1964) 73500 24000 26900 40400 42900 58500 87800 105000 127000 196000
2021-03-17 21:30 20.08 164000 259000 (2019) 15800 (1964) 73500 24000 26900 40400 42900 58500 87800 105000 127000 196000
2021-03-17 20:30 19.84 161000 259000 (2019) 15800 (1964) 73500 24000 26900 40400 42900 58500 87800 105000 127000 196000
2021-03-17 19:30 19.70 160000 259000 (2019) 15800 (1964) 73500 24000 26900 40400 42900 58500 87800 105000 127000 196000
2021-03-17 18:30 19.49 157000 259000 (2019) 15800 (1964) 73500 24000 26900 40400 42900 58500 87800 105000 127000 196000
2021-03-17 17:30 19.26 155000 259000 (2019) 15800 (1964) 73500 24000 26900 40400 42900 58500 87800 105000 127000 196000
2021-03-17 16:30 19.14 154000 259000 (2019) 15800 (1964) 73500 24000 26900 40400 42900 58500 87800 105000 127000 196000
2021-03-17 15:30 18.88 151000 259000 (2019) 15800 (1964) 73500 24000 26900 40400 42900 58500 87800 105000 127000 196000
2021-03-17 14:30 18.63 149000 259000 (2019) 15800 (1964) 73500 24000 26900 40400 42900 58500 87800 105000 127000 196000
2021-03-17 13:30 18.27 145000 259000 (2019) 15800 (1964) 73500 24000 26900 40400 42900 58500 87800 105000 127000 196000
2021-03-17 12:30 18.09 143000 259000 (2019) 15800 (1964) 73500 24000 26900 40400 42900 58500 87800 105000 127000 196000
2021-03-17 11:30 17.86 140000 259000 (2019) 15800 (1964) 73500 24000 26900 40400 42900 58500 87800 105000 127000 196000
2021-03-17 10:30 17.73 139000 259000 (2019) 15800 (1964) 73500 24000 26900 40400 42900 58500 87800 105000 127000 196000
2021-03-17 09:30 17.27 134000 259000 (2019) 15800 (1964) 73500 24000 26900 40400 42900 58500 87800 105000 127000 196000
2021-03-17 08:30 17.10 132000 259000 (2019) 15800 (1964) 73500 24000 26900 40400 42900 58500 87800 105000 127000 196000
2021-03-17 07:30 16.84 129000 259000 (2019) 15800 (1964) 73500 24000 26900 40400 42900 58500 87800 105000 127000 196000
2021-03-17 06:30 16.52 126000 259000 (2019) 15800 (1964) 73500 24000 26900 40400 42900 58500 87800 105000 127000 196000
2021-03-17 05:30 16.27 124000 259000 (2019) 15800 (1964) 73500 24000 26900 40400 42900 58500 87800 105000 127000 196000
2021-03-17 04:30 16.02 121000 259000 (2019) 15800 (1964) 73500 24000 26900 40400 42900 58500 87800 105000 127000 196000
2021-03-17 03:30 15.78 118000 259000 (2019) 15800 (1964) 73500 24000 26900 40400 42900 58500 87800 105000 127000 196000
2021-03-17 02:30 15.59 116000 259000 (2019) 15800 (1964) 73500 24000 26900 40400 42900 58500 87800 105000 127000 196000
2021-03-17 01:30 15.33 114000 259000 (2019) 15800 (1964) 73500 24000 26900 40400 42900 58500 87800 105000 127000 196000
2021-03-17 00:30 15.10 112000 259000 (2019) 15800 (1964) 73500 24000 26900 40400 42900 58500 87800 105000 127000 196000
2021-03-16 23:30 14.92 110000 247000 (2019) 16000 (1964) 73800 24300 27400 39000 41600 60000 92000 102000 134000 207000
2021-03-16 22:30 14.74 108000 247000 (2019) 16000 (1964) 73800 24300 27400 39000 41600 60000 92000 102000 134000 207000
2021-03-16 21:30 14.62 107000 247000 (2019) 16000 (1964) 73800 24300 27400 39000 41600 60000 92000 102000 134000 207000
2021-03-16 20:30 14.43 105000 247000 (2019) 16000 (1964) 73800 24300 27400 39000 41600 60000 92000 102000 134000 207000
2021-03-16 19:30 14.25 103000 247000 (2019) 16000 (1964) 73800 24300 27400 39000 41600 60000 92000 102000 134000 207000
2021-03-16 18:30 14.19 102000 247000 (2019) 16000 (1964) 73800 24300 27400 39000 41600 60000 92000 102000 134000 207000
2021-03-16 17:30 14.03 101000 247000 (2019) 16000 (1964) 73800 24300 27400 39000 41600 60000 92000 102000 134000 207000
2021-03-16 16:30 13.82 98500 247000 (2019) 16000 (1964) 73800 24300 27400 39000 41600 60000 92000 102000 134000 207000
2021-03-16 15:30 13.70 97300 247000 (2019) 16000 (1964) 73800 24300 27400 39000 41600 60000 92000 102000 134000 207000
2021-03-16 14:30 13.51 95400 247000 (2019) 16000 (1964) 73800 24300 27400 39000 41600 60000 92000 102000 134000 207000
2021-03-16 13:30 13.20 92300 247000 (2019) 16000 (1964) 73800 24300 27400 39000 41600 60000 92000 102000 134000 207000
2021-03-16 12:30 12.99 90300 247000 (2019) 16000 (1964) 73800 24300 27400 39000 41600 60000 92000 102000 134000 207000
2021-03-16 11:30 12.67 87300 247000 (2019) 16000 (1964) 73800 24300 27400 39000 41600 60000 92000 102000 134000 207000
2021-03-16 10:30 12.34 84200 247000 (2019) 16000 (1964) 73800 24300 27400 39000 41600 60000 92000 102000 134000 207000
2021-03-16 09:30 12.16 82600 247000 (2019) 16000 (1964) 73800 24300 27400 39000 41600 60000 92000 102000 134000 207000
2021-03-16 08:30 11.83 79800 247000 (2019) 16000 (1964) 73800 24300 27400 39000 41600 60000 92000 102000 134000 207000
2021-03-16 07:30 11.55 77400 247000 (2019) 16000 (1964) 73800 24300 27400 39000 41600 60000 92000 102000 134000 207000
2021-03-16 06:30 11.29 75300 247000 (2019) 16000 (1964) 73800 24300 27400 39000 41600 60000 92000 102000 134000 207000
2021-03-16 05:30 11.06 73500 247000 (2019) 16000 (1964) 73800 24300 27400 39000 41600 60000 92000 102000 134000 207000
2021-03-16 04:30 10.85 71800 247000 (2019) 16000 (1964) 73800 24300 27400 39000 41600 60000 92000 102000 134000 207000
2021-03-16 03:30 10.69 70600 247000 (2019) 16000 (1964) 73800 24300 27400 39000 41600 60000 92000 102000 134000 207000
2021-03-16 02:30 10.51 69200 247000 (2019) 16000 (1964) 73800 24300 27400 39000 41600 60000 92000 102000 134000 207000
2021-03-16 01:30 10.39 68300 247000 (2019) 16000 (1964) 73800 24300 27400 39000 41600 60000 92000 102000 134000 207000
2021-03-16 00:30 10.24 67200 247000 (2019) 16000 (1964) 73800 24300 27400 39000 41600 60000 92000 102000 134000 207000
2021-03-15 23:30 10.13 66400 238000 (2010) 16400 (1964) 71900 24200 26900 38500 41200 59900 84500 98900 129000 208000
2021-03-15 22:30 10.02 65600 238000 (2010) 16400 (1964) 71900 24200 26900 38500 41200 59900 84500 98900 129000 208000
2021-03-15 21:30 9.92 64900 238000 (2010) 16400 (1964) 71900 24200 26900 38500 41200 59900 84500 98900 129000 208000
2021-03-15 20:30 9.74 63600 238000 (2010) 16400 (1964) 71900 24200 26900 38500 41200 59900 84500 98900 129000 208000
2021-03-15 19:30 9.62 62800 238000 (2010) 16400 (1964) 71900 24200 26900 38500 41200 59900 84500 98900 129000 208000
2021-03-15 18:30 9.44 61500 238000 (2010) 16400 (1964) 71900 24200 26900 38500 41200 59900 84500 98900 129000 208000
2021-03-15 17:30 9.35 60900 238000 (2010) 16400 (1964) 71900 24200 26900 38500 41200 59900 84500 98900 129000 208000
2021-03-15 16:30 9.26 60300 238000 (2010) 16400 (1964) 71900 24200 26900 38500 41200 59900 84500 98900 129000 208000
2021-03-15 15:30 9.11 59300 238000 (2010) 16400 (1964) 71900 24200 26900 38500 41200 59900 84500 98900 129000 208000
2021-03-15 14:30 9.04 58800 238000 (2010) 16400 (1964) 71900 24200 26900 38500 41200 59900 84500 98900 129000 208000
2021-03-15 13:30 8.84 57500 238000 (2010) 16400 (1964) 71900 24200 26900 38500 41200 59900 84500 98900 129000 208000
2021-03-15 12:30 8.76 57000 238000 (2010) 16400 (1964) 71900 24200 26900 38500 41200 59900 84500 98900 129000 208000
2021-03-15 11:30 8.52 55400 238000 (2010) 16400 (1964) 71900 24200 26900 38500 41200 59900 84500 98900 129000 208000
2021-03-15 10:30 8.39 54600 238000 (2010) 16400 (1964) 71900 24200 26900 38500 41200 59900 84500 98900 129000 208000
2021-03-15 09:30 8.36 54400 238000 (2010) 16400 (1964) 71900 24200 26900 38500 41200 59900 84500 98900 129000 208000
2021-03-15 08:30 8.19 53400 238000 (2010) 16400 (1964) 71900 24200 26900 38500 41200 59900 84500 98900 129000 208000
2021-03-15 07:30 8.10 52800 238000 (2010) 16400 (1964) 71900 24200 26900 38500 41200 59900 84500 98900 129000 208000
2021-03-15 06:30 8.05 52500 238000 (2010) 16400 (1964) 71900 24200 26900 38500 41200 59900 84500 98900 129000 208000
2021-03-15 05:30 7.91 51700 238000 (2010) 16400 (1964) 71900 24200 26900 38500 41200 59900 84500 98900 129000 208000
2021-03-15 04:30 7.82 51200 238000 (2010) 16400 (1964) 71900 24200 26900 38500 41200 59900 84500 98900 129000 208000
2021-03-15 03:30 7.77 50900 238000 (2010) 16400 (1964) 71900 24200 26900 38500 41200 59900 84500 98900 129000 208000
2021-03-15 02:30 7.69 50400 238000 (2010) 16400 (1964) 71900 24200 26900 38500 41200 59900 84500 98900 129000 208000
2021-03-15 01:30 7.61 50000 238000 (2010) 16400 (1964) 71900 24200 26900 38500 41200 59900 84500 98900 129000 208000
2021-03-15 00:30 7.64 50100 238000 (2010) 16400 (1964) 71900 24200 26900 38500 41200 59900 84500 98900 129000 208000
2021-03-14 23:30 7.59 49800 241000 (2010) 17100 (1964) 69500 23300 26500 36000 41500 57800 84300 98700 125000 178000
2021-03-14 22:30 7.55 49600 241000 (2010) 17100 (1964) 69500 23300 26500 36000 41500 57800 84300 98700 125000 178000
2021-03-14 21:30 7.64 50100 241000 (2010) 17100 (1964) 69500 23300 26500 36000 41500 57800 84300 98700 125000 178000
2021-03-14 20:30 7.61 50000 241000 (2010) 17100 (1964) 69500 23300 26500 36000 41500 57800 84300 98700 125000 178000
2021-03-14 19:30 7.70 50500 241000 (2010) 17100 (1964) 69500 23300 26500 36000 41500 57800 84300 98700 125000 178000
2021-03-14 18:30 7.71 50500 241000 (2010) 17100 (1964) 69500 23300 26500 36000 41500 57800 84300 98700 125000 178000
2021-03-14 17:30 7.76 50800 241000 (2010) 17100 (1964) 69500 23300 26500 36000 41500 57800 84300 98700 125000 178000
2021-03-14 16:30 7.76 50800 241000 (2010) 17100 (1964) 69500 23300 26500 36000 41500 57800 84300 98700 125000 178000
2021-03-14 15:30 7.78 50900 241000 (2010) 17100 (1964) 69500 23300 26500 36000 41500 57800 84300 98700 125000 178000
2021-03-14 14:30 7.76 50800 241000 (2010) 17100 (1964) 69500 23300 26500 36000 41500 57800 84300 98700 125000 178000
2021-03-14 13:30 7.77 50900 241000 (2010) 17100 (1964) 69500 23300 26500 36000 41500 57800 84300 98700 125000 178000
2021-03-14 12:30 7.71 50500 241000 (2010) 17100 (1964) 69500 23300 26500 36000 41500 57800 84300 98700 125000 178000
2021-03-14 11:30 7.79 51000 241000 (2010) 17100 (1964) 69500 23300 26500 36000 41500 57800 84300 98700 125000 178000
2021-03-14 10:30 7.82 51200 241000 (2010) 17100 (1964) 69500 23300 26500 36000 41500 57800 84300 98700 125000 178000
2021-03-14 09:30 7.81 51100 241000 (2010) 17100 (1964) 69500 23300 26500 36000 41500 57800 84300 98700 125000 178000
2021-03-14 08:30 7.83 51200 241000 (2010) 17100 (1964) 69500 23300 26500 36000 41500 57800 84300 98700 125000 178000
2021-03-14 07:30 7.75 50800 241000 (2010) 17100 (1964) 69500 23300 26500 36000 41500 57800 84300 98700 125000 178000
2021-03-14 06:30 7.68 50400 241000 (2010) 17100 (1964) 69500 23300 26500 36000 41500 57800 84300 98700 125000 178000
2021-03-14 05:30 7.71 50500 241000 (2010) 17100 (1964) 69500 23300 26500 36000 41500 57800 84300 98700 125000 178000
2021-03-14 04:30 7.60 49900 241000 (2010) 17100 (1964) 69500 23300 26500 36000 41500 57800 84300 98700 125000 178000
2021-03-14 03:30 7.60 49900 241000 (2010) 17100 (1964) 69500 23300 26500 36000 41500 57800 84300 98700 125000 178000
2021-03-14 01:30 7.58 49800 241000 (2010) 17100 (1964) 69500 23300 26500 36000 41500 57800 84300 98700 125000 178000
2021-03-14 00:30 7.57 49700 241000 (2010) 17100 (1964) 69500 23300 26500 36000 41500 57800 84300 98700 125000 178000
2021-03-13 23:30 7.49 49300 224000 (1973) 17300 (1964) 67200 22800 26400 32500 41500 56500 77600 89700 126000 167000
2021-03-13 22:30 7.41 48800 224000 (1973) 17300 (1964) 67200 22800 26400 32500 41500 56500 77600 89700 126000 167000
2021-03-13 21:30 7.47 49200 224000 (1973) 17300 (1964) 67200 22800 26400 32500 41500 56500 77600 89700 126000 167000
2021-03-13 20:30 7.40 48800 224000 (1973) 17300 (1964) 67200 22800 26400 32500 41500 56500 77600 89700 126000 167000
2021-03-13 19:30 7.41 48800 224000 (1973) 17300 (1964) 67200 22800 26400 32500 41500 56500 77600 89700 126000 167000
2021-03-13 18:30 7.37 48600 224000 (1973) 17300 (1964) 67200 22800 26400 32500 41500 56500 77600 89700 126000 167000
2021-03-13 17:30 7.37 48600 224000 (1973) 17300 (1964) 67200 22800 26400 32500 41500 56500 77600 89700 126000 167000
2021-03-13 16:30 7.35 48500 224000 (1973) 17300 (1964) 67200 22800 26400 32500 41500 56500 77600 89700 126000 167000
2021-03-13 15:30 7.36 48500 224000 (1973) 17300 (1964) 67200 22800 26400 32500 41500 56500 77600 89700 126000 167000
2021-03-13 14:30 7.34 48400 224000 (1973) 17300 (1964) 67200 22800 26400 32500 41500 56500 77600 89700 126000 167000
2021-03-13 13:30 7.38 48700 224000 (1973) 17300 (1964) 67200 22800 26400 32500 41500 56500 77600 89700 126000 167000
2021-03-13 12:30 7.38 48700 224000 (1973) 17300 (1964) 67200 22800 26400 32500 41500 56500 77600 89700 126000 167000
2021-03-13 11:30 7.39 48700 224000 (1973) 17300 (1964) 67200 22800 26400 32500 41500 56500 77600 89700 126000 167000
2021-03-13 10:30 7.44 49000 224000 (1973) 17300 (1964) 67200 22800 26400 32500 41500 56500 77600 89700 126000 167000
2021-03-13 09:30 7.43 48900 224000 (1973) 17300 (1964) 67200 22800 26400 32500 41500 56500 77600 89700 126000 167000
2021-03-13 08:30 7.39 48700 224000 (1973) 17300 (1964) 67200 22800 26400 32500 41500 56500 77600 89700 126000 167000
2021-03-13 07:30 7.40 48800 224000 (1973) 17300 (1964) 67200 22800 26400 32500 41500 56500 77600 89700 126000 167000
2021-03-13 06:30 7.45 49000 224000 (1973) 17300 (1964) 67200 22800 26400 32500 41500 56500 77600 89700 126000 167000
2021-03-13 05:30 7.41 48800 224000 (1973) 17300 (1964) 67200 22800 26400 32500 41500 56500 77600 89700 126000 167000
2021-03-13 04:30 7.37 48600 224000 (1973) 17300 (1964) 67200 22800 26400 32500 41500 56500 77600 89700 126000 167000
2021-03-13 03:30 7.35 48500 224000 (1973) 17300 (1964) 67200 22800 26400 32500 41500 56500 77600 89700 126000 167000
2021-03-13 02:30 7.31 48300 224000 (1973) 17300 (1964) 67200 22800 26400 32500 41500 56500 77600 89700 126000 167000
2021-03-13 01:30 7.32 48300 224000 (1973) 17300 (1964) 67200 22800 26400 32500 41500 56500 77600 89700 126000 167000
2021-03-13 00:30 7.46 49100 224000 (1973) 17300 (1964) 67200 22800 26400 32500 41500 56500 77600 89700 126000 167000
2021-03-12 23:30 7.34 48400 219000 (1973) 18500 (1964) 67100 22400 26500 32500 37400 54200 85600 96400 145000 168000
2021-03-12 22:30 7.41 48800 219000 (1973) 18500 (1964) 67100 22400 26500 32500 37400 54200 85600 96400 145000 168000
2021-03-12 21:30 7.30 48200 219000 (1973) 18500 (1964) 67100 22400 26500 32500 37400 54200 85600 96400 145000 168000
2021-03-12 20:30 7.23 47800 219000 (1973) 18500 (1964) 67100 22400 26500 32500 37400 54200 85600 96400 145000 168000
2021-03-12 19:30 7.29 48100 219000 (1973) 18500 (1964) 67100 22400 26500 32500 37400 54200 85600 96400 145000 168000
2021-03-12 18:30 7.19 47600 219000 (1973) 18500 (1964) 67100 22400 26500 32500 37400 54200 85600 96400 145000 168000
2021-03-12 17:30 7.06 46900 219000 (1973) 18500 (1964) 67100 22400 26500 32500 37400 54200 85600 96400 145000 168000
2021-03-12 16:30 7.12 47200 219000 (1973) 18500 (1964) 67100 22400 26500 32500 37400 54200 85600 96400 145000 168000
2021-03-12 15:30 7.08 47000 219000 (1973) 18500 (1964) 67100 22400 26500 32500 37400 54200 85600 96400 145000 168000
2021-03-12 14:30 7.14 47300 219000 (1973) 18500 (1964) 67100 22400 26500 32500 37400 54200 85600 96400 145000 168000
2021-03-12 13:30 7.06 46900 219000 (1973) 18500 (1964) 67100 22400 26500 32500 37400 54200 85600 96400 145000 168000
2021-03-12 12:30 7.04 46800 219000 (1973) 18500 (1964) 67100 22400 26500 32500 37400 54200 85600 96400 145000 168000
2021-03-12 11:30 6.94 46200 219000 (1973) 18500 (1964) 67100 22400 26500 32500 37400 54200 85600 96400 145000 168000
2021-03-12 10:30 6.97 46400 219000 (1973) 18500 (1964) 67100 22400 26500 32500 37400 54200 85600 96400 145000 168000
2021-03-12 09:30 6.95 46300 219000 (1973) 18500 (1964) 67100 22400 26500 32500 37400 54200 85600 96400 145000 168000
2021-03-12 08:30 7.00 46500 219000 (1973) 18500 (1964) 67100 22400 26500 32500 37400 54200 85600 96400 145000 168000
2021-03-12 07:30 7.02 46700 219000 (1973) 18500 (1964) 67100 22400 26500 32500 37400 54200 85600 96400 145000 168000
2021-03-12 06:30 7.03 46700 219000 (1973) 18500 (1964) 67100 22400 26500 32500 37400 54200 85600 96400 145000 168000
2021-03-12 05:30 7.14 47300 219000 (1973) 18500 (1964) 67100 22400 26500 32500 37400 54200 85600 96400 145000 168000
2021-03-12 04:30 7.16 47400 219000 (1973) 18500 (1964) 67100 22400 26500 32500 37400 54200 85600 96400 145000 168000
2021-03-12 03:30 7.20 47600 219000 (1973) 18500 (1964) 67100 22400 26500 32500 37400 54200 85600 96400 145000 168000
2021-03-12 02:30 7.21 47700 219000 (1973) 18500 (1964) 67100 22400 26500 32500 37400 54200 85600 96400 145000 168000
2021-03-12 01:30 7.22 47800 219000 (1973) 18500 (1964) 67100 22400 26500 32500 37400 54200 85600 96400 145000 168000
2021-03-12 00:30 7.23 47800 219000 (1973) 18500 (1964) 67100 22400 26500 32500 37400 54200 85600 96400 145000 168000
2021-03-11 23:30 7.23 47800 208000 (1973) 19100 (1964) 67300 23500 27200 31700 35500 54000 89600 101000 149000 162000
2021-03-11 22:30 7.26 48000 208000 (1973) 19100 (1964) 67300 23500 27200 31700 35500 54000 89600 101000 149000 162000
2021-03-11 21:30 7.26 48000 208000 (1973) 19100 (1964) 67300 23500 27200 31700 35500 54000 89600 101000 149000 162000
2021-03-11 20:30 7.27 48000 208000 (1973) 19100 (1964) 67300 23500 27200 31700 35500 54000 89600 101000 149000 162000
2021-03-11 19:30 7.29 48100 208000 (1973) 19100 (1964) 67300 23500 27200 31700 35500 54000 89600 101000 149000 162000
2021-03-11 18:30 7.29 48100 208000 (1973) 19100 (1964) 67300 23500 27200 31700 35500 54000 89600 101000 149000 162000
2021-03-11 17:30 7.30 48200 208000 (1973) 19100 (1964) 67300 23500 27200 31700 35500 54000 89600 101000 149000 162000
2021-03-11 16:30 7.31 48300 208000 (1973) 19100 (1964) 67300 23500 27200 31700 35500 54000 89600 101000 149000 162000
2021-03-11 15:30 7.33 48400 208000 (1973) 19100 (1964) 67300 23500 27200 31700 35500 54000 89600 101000 149000 162000
2021-03-11 14:30 7.34 48400 208000 (1973) 19100 (1964) 67300 23500 27200 31700 35500 54000 89600 101000 149000 162000
2021-03-11 13:30 7.36 48500 208000 (1973) 19100 (1964) 67300 23500 27200 31700 35500 54000 89600 101000 149000 162000
2021-03-11 12:30 7.37 48600 208000 (1973) 19100 (1964) 67300 23500 27200 31700 35500 54000 89600 101000 149000 162000
2021-03-11 11:30 7.38 48700 208000 (1973) 19100 (1964) 67300 23500 27200 31700 35500 54000 89600 101000 149000 162000
2021-03-11 10:30 7.40 48800 208000 (1973) 19100 (1964) 67300 23500 27200 31700 35500 54000 89600 101000 149000 162000
2021-03-11 09:30 7.41 48800 208000 (1973) 19100 (1964) 67300 23500 27200 31700 35500 54000 89600 101000 149000 162000
2021-03-11 08:30 7.41 48800 208000 (1973) 19100 (1964) 67300 23500 27200 31700 35500 54000 89600 101000 149000 162000
2021-03-11 07:30 7.45 49000 208000 (1973) 19100 (1964) 67300 23500 27200 31700 35500 54000 89600 101000 149000 162000
2021-03-11 06:30 7.45 49000 208000 (1973) 19100 (1964) 67300 23500 27200 31700 35500 54000 89600 101000 149000 162000
2021-03-11 05:30 7.46 49100 208000 (1973) 19100 (1964) 67300 23500 27200 31700 35500 54000 89600 101000 149000 162000
2021-03-11 04:30 7.44 49000 208000 (1973) 19100 (1964) 67300 23500 27200 31700 35500 54000 89600 101000 149000 162000
2021-03-11 03:30 7.46 49100 208000 (1973) 19100 (1964) 67300 23500 27200 31700 35500 54000 89600 101000 149000 162000
2021-03-11 02:30 7.46 49100 208000 (1973) 19100 (1964) 67300 23500 27200 31700 35500 54000 89600 101000 149000 162000
2021-03-11 01:30 7.44 49000 208000 (1973) 19100 (1964) 67300 23500 27200 31700 35500 54000 89600 101000 149000 162000
2021-03-11 00:30 7.40 48800 208000 (1973) 19100 (1964) 67300 23500 27200 31700 35500 54000 89600 101000 149000 162000

A total of 739 rows are displayed for years 1958 through 2020.